GEFSCGP_500_meanwind_054.txt.gz
Wind_Speed
7 5 4 4 5 6 8 8 8 9 10 11 13 16 18 21 22 22 22 21 20 18 17 17 17 18 18 19 20 21 22 24 25 26 27 28 29 30 31 31 31 31 31 31
5 4 4 3 3 4 4 6 7 7 8 9 10 13 16 18 19 19 20 18 16 15 15 16 17 17 18 19 20 22 23 24 26 27 28 30 30 31 32 33 33 32 32 31
5 4 4 4 3 4 4 4 5 5 5 5 7 8 11 13 13 13 12 12 11 12 13 14 15 16 18 19 20 22 23 25 26 27 28 29 30 31 32 32 33 32 31 30
4 4 3 3 4 4 4 3 3 3 4 4 5 5 6 5 4 3 5 5 7 9 11 13 15 17 18 19 20 22 23 24 25 26 28 29 29 30 30 31 31 30 30 29
5 5 4 4 4 4 4 4 4 3 3 3 5 6 3 3 3 1 1 2 5 8 10 12 14 16 17 18 19 21 22 24 25 26 27 28 28 29 29 29 29 30 30 30
6 4 4 4 5 4 4 4 4 3 3 4 5 6 4 3 2 2 1 3 6 8 10 12 14 15 16 18 19 21 22 24 25 26 26 27 27 27 28 29 29 30 30 31
7 4 4 5 5 5 5 5 4 4 3 3 4 5 4 4 3 3 3 5 7 9 10 12 14 15 17 19 21 22 24 25 26 26 27 27 27 28 28 29 30 30 31 32
7 6 5 5 5 6 6 6 6 5 4 3 3 3 3 3 4 5 6 7 8 10 11 13 14 16 18 20 22 23 25 26 26 27 28 28 28 29 30 30 31 32 32 33
7 6 5 5 5 6 6 7 7 6 5 4 2 2 3 4 6 7 7 8 10 11 12 14 15 17 19 21 23 25 26 27 28 29 29 29 30 31 31 32 33 34 35 36
8 7 7 6 6 6 6 7 7 6 5 3 2 2 4 6 7 8 10 11 11 13 14 15 16 18 21 23 25 27 28 29 30 30 30 31 32 33 34 35 36 37 37 38
9 8 7 7 7 7 7 7 8 6 5 5 3 3 6 7 9 10 12 13 13 15 16 17 19 21 23 25 27 29 30 31 32 32 33 33 34 36 37 37 38 39 40 40
9 8 8 8 8 8 8 9 9 8 6 6 6 6 7 9 11 12 14 15 16 17 18 19 21 23 25 27 28 30 31 33 34 34 35 35 37 38 39 40 41 41 41 42
10 9 8 9 9 10 11 11 11 10 8 8 8 9 11 12 14 15 17 18 19 19 20 21 22 24 26 28 30 31 33 34 35 36 37 38 39 40 41 42 43 43 43 43
10 10 10 11 12 13 12 13 13 12 11 10 10 11 13 15 17 18 19 20 21 21 21 22 23 25 27 29 31 33 35 36 37 38 39 40 41 42 43 44 45 45 45 44
11 11 12 13 14 14 13 14 14 13 13 13 12 14 16 18 20 21 22 22 21 21 22 23 24 26 28 30 33 35 37 38 39 39 40 41 43 44 45 46 46 46 45 45
12 12 13 13 14 14 13 14 14 14 15 14 14 16 18 20 22 23 23 22 22 22 23 24 25 28 30 32 34 37 39 39 40 40 41 42 44 45 46 46 47 46 46 46
13 13 14 13 15 15 15 15 14 14 14 14 15 18 20 22 23 23 23 22 22 23 24 25 27 29 32 34 36 39 40 41 41 41 42 43 45 46 47 47 47 47 46 45
14 14 14 13 13 14 13 14 13 13 13 14 17 19 21 23 24 23 23 22 23 23 25 26 29 31 33 35 37 39 41 41 42 42 43 44 46 47 48 48 47 47 46 45
14 15 14 13 13 11 11 13 13 13 14 16 18 20 22 23 23 23 23 23 24 25 26 28 30 32 34 36 38 40 41 41 42 43 44 45 47 48 48 48 47 46 46 44
15 15 16 15 14 12 11 13 13 14 14 17 19 21 22 23 23 23 24 24 25 26 28 30 32 34 35 37 39 40 41 42 43 44 45 46 48 48 48 47 46 46 45 44
16 17 17 17 16 13 14 15 15 16 17 18 19 21 23 24 25 25 25 26 27 28 30 31 33 35 37 38 40 41 42 43 44 45 46 48 49 48 48 47 47 46 45 43
19 19 19 19 18 18 18 18 18 19 19 20 22 23 24 25 26 27 27 28 29 30 31 33 35 37 38 40 41 42 43 44 45 46 48 49 49 49 48 47 47 45 44 43
22 22 22 22 21 21 21 21 21 22 22 23 24 25 26 26 27 28 29 30 31 32 33 35 37 39 40 41 42 43 44 46 47 48 49 50 49 49 48 47 45 44 43 41
23 25 26 26 24 24 24 24 24 25 26 26 26 27 28 28 29 30 31 32 33 34 36 37 39 40 42 43 43 44 46 48 50 51 51 50 49 49 48 47 45 43 42 40
23 27 29 29 27 27 26 26 27 27 28 29 29 29 30 31 31 31 32 34 35 36 38 39 40 42 43 44 45 46 49 51 52 52 52 51 50 48 47 46 44 42 41 38
25 29 31 30 29 30 29 28 29 29 30 31 31 31 32 32 32 33 34 35 37 38 40 41 42 43 44 45 47 49 51 53 54 54 53 51 49 47 45 44 42 41 39 37

GEFSCGP_500_meanwind_060.txt.gz
Wind_Speed
13 12 9 7 6 5 4 4 5 7 7 8 10 13 14 15 17 19 19 17 15 14 13 11 9 8 8 9 10 10 12 13 15 16 18 19 21 22 22 22 22 23 23 23
12 10 9 6 5 6 7 6 7 7 7 7 9 11 12 13 14 14 13 13 13 12 10 8 6 7 8 9 10 11 13 15 17 18 20 22 23 24 24 24 23 23 23 23
9 8 8 6 6 6 6 6 7 8 8 8 9 11 11 11 10 8 6 7 7 6 3 3 4 6 8 9 11 13 15 17 18 20 21 22 23 23 23 23 22 22 22 22
8 8 7 7 6 6 6 7 7 8 7 8 9 10 10 9 6 4 2 1 1 1 2 3 5 7 9 11 13 15 17 18 20 21 21 22 22 21 21 21 21 21 21 21
8 8 7 6 5 5 6 7 7 7 7 8 9 8 8 6 5 4 3 2 2 3 4 4 6 8 10 12 14 16 18 19 19 19 20 20 21 21 21 21 21 20 20 20
8 7 6 5 5 6 7 7 7 7 7 7 8 6 6 5 5 6 5 4 4 5 5 6 8 9 11 13 15 17 17 18 18 19 20 20 20 21 21 21 21 21 21 21
9 8 6 6 6 6 6 5 7 7 7 8 7 6 5 5 5 5 6 6 7 7 7 8 10 11 13 14 16 17 17 18 19 20 20 20 21 21 21 21 22 22 22 23
7 8 8 7 6 6 6 5 3 3 5 7 8 6 6 5 6 6 7 7 8 8 9 11 12 13 14 15 16 17 18 19 20 20 20 21 21 21 22 22 23 23 24 25
8 9 9 8 7 7 6 5 4 4 5 5 7 7 7 7 7 7 8 8 9 10 11 12 14 15 16 16 17 18 18 19 19 20 21 22 22 23 23 24 25 25 26 27
9 9 11 10 9 8 7 6 5 2 4 4 8 8 9 9 8 8 9 9 11 12 13 14 15 16 16 17 17 18 19 19 20 21 22 23 24 25 25 26 27 28 28 30
10 10 11 11 10 10 9 8 6 5 6 3 6 9 10 10 10 10 10 11 12 14 15 15 16 17 17 17 18 19 19 20 22 23 24 25 26 27 27 28 29 30 31 32
12 11 10 12 11 11 10 10 8 7 8 8 7 10 13 12 11 11 12 13 14 15 16 16 16 17 17 17 18 19 20 22 23 25 26 27 28 29 30 30 31 33 34 35
12 11 8 10 11 12 11 12 11 10 10 9 8 11 17 15 14 14 14 15 16 16 16 16 16 17 17 18 19 20 22 23 25 27 28 29 30 31 32 33 34 35 37 38
13 12 10 10 12 14 13 13 13 12 11 12 12 14 16 17 16 16 16 16 16 16 16 16 16 17 18 19 20 22 23 25 27 28 30 31 32 33 34 35 37 38 40 41
14 13 12 13 14 14 13 14 14 14 14 14 14 15 17 18 17 17 17 17 16 16 16 16 17 18 19 21 22 23 25 26 28 30 31 33 34 35 36 37 40 42 43 43
14 13 14 14 14 14 13 14 15 15 15 16 16 16 17 17 17 17 17 17 17 17 17 17 18 19 21 22 23 24 26 28 30 31 32 34 35 36 37 40 42 44 44 45
14 14 14 13 14 15 13 14 15 15 15 15 15 16 17 17 18 18 18 17 17 17 18 18 19 21 22 23 25 26 28 29 31 32 33 35 36 38 40 42 44 45 46 46
16 16 15 14 15 15 13 16 15 14 14 15 15 16 17 18 19 19 18 18 18 18 19 20 21 22 24 25 26 28 29 30 32 33 34 36 38 40 42 44 46 47 47 46
17 17 16 16 15 15 15 17 16 14 14 16 17 17 18 19 20 20 19 19 19 19 20 21 22 24 25 27 28 29 30 31 32 33 35 36 39 41 44 46 48 48 47 46
18 18 18 18 17 15 16 20 18 16 15 19 19 20 21 21 20 21 21 20 21 21 22 23 24 26 27 28 29 31 32 32 33 35 36 39 41 43 46 48 49 49 48 46
20 20 20 20 19 17 21 21 19 17 19 21 22 22 22 22 21 22 22 22 23 24 25 26 27 28 29 30 31 32 33 34 35 37 39 41 44 46 47 49 50 50 48 45
21 21 22 22 20 20 24 22 22 23 22 23 23 23 24 23 24 24 24 25 25 26 27 28 29 30 31 32 33 34 34 35 36 39 41 44 47 48 50 51 51 50 47 44
23 24 25 25 24 26 25 24 24 23 23 23 24 24 25 25 25 26 27 28 28 29 30 31 32 33 33 34 36 36 36 37 39 41 44 47 49 50 51 52 51 49 46 43
27 27 27 27 27 27 26 26 26 25 25 25 26 26 27 27 28 28 29 30 31 32 33 34 35 35 36 37 37 39 40 41 42 44 46 48 50 51 52 52 50 48 45 42
29 28 28 28 29 28 28 28 28 28 28 28 28 29 29 30 30 30 31 32 33 34 35 36 37 38 39 40 40 41 43 44 44 46 49 50 51 52 53 51 49 46 44 41
27 28 28 30 30 30 30 30 30 30 30 30 30 31 32 32 32 32 33 34 35 36 37 38 40 42 43 43 44 44 45 46 47 49 51 51 52 53 52 50 47 44 42 40

GEFSCGP_500_meanwind_066.txt.gz
Wind_Speed
13 14 13 12 11 11 11 11 12 10 8 8 11 15 12 8 8 10 12 13 15 16 15 16 15 13 11 10 10 10 10 11 11 12 13 14 15 15 16 16 16 17 18 18
14 13 11 10 8 7 10 10 9 9 9 9 11 13 9 7 8 8 10 10 11 10 11 11 11 10 9 8 9 9 9 9 10 11 12 13 14 15 15 16 17 17 18 18
10 11 13 12 8 9 11 12 11 10 10 9 10 10 9 9 7 5 6 6 4 5 5 7 7 6 6 6 6 7 8 9 10 11 12 13 15 16 17 17 18 18 18 19
8 9 12 11 10 9 12 11 10 10 11 11 10 10 11 9 8 4 4 2 1 1 3 4 4 4 4 4 5 6 8 9 11 12 14 15 16 17 18 19 19 19 19 19
9 12 13 12 11 9 10 8 7 8 11 9 8 10 13 11 9 7 6 4 2 1 2 3 3 2 2 3 5 7 9 10 12 14 16 17 18 19 19 20 20 20 20 20
9 10 11 11 10 8 7 7 9 12 11 5 8 8 11 11 9 8 8 6 3 2 1 1 2 3 4 6 7 9 10 12 13 15 17 18 19 20 21 21 22 22 22 21
15 14 12 10 10 10 8 9 15 17 14 9 10 7 9 10 9 8 7 7 5 4 4 4 5 5 7 8 9 10 11 13 14 16 17 19 20 21 21 22 23 23 23 23
18 17 10 10 12 11 8 8 12 13 14 10 5 6 9 9 8 8 8 7 7 6 6 7 8 8 9 10 11 12 13 14 15 17 18 19 21 21 22 22 23 23 24 25
16 16 11 12 13 11 8 7 9 10 9 9 2 7 10 8 9 10 9 9 9 9 9 10 11 11 11 12 12 13 14 15 16 18 19 20 22 23 23 24 24 25 25 26
15 15 13 15 12 11 10 8 7 6 8 12 6 6 8 11 14 13 12 12 12 12 13 13 13 13 13 13 14 14 15 16 17 18 20 20 21 23 23 24 25 26 26 27
14 15 13 15 12 8 12 10 8 7 7 9 14 9 8 14 17 17 15 15 15 15 16 15 15 15 14 14 14 15 16 17 18 19 21 22 22 23 24 24 25 26 27 29
16 16 15 16 16 13 13 10 11 10 9 7 11 10 8 14 19 20 19 18 18 18 18 18 16 16 16 15 15 15 16 18 19 20 21 22 23 24 24 25 26 27 29 30
17 17 15 15 20 16 13 10 10 11 11 8 11 16 15 15 16 18 20 21 20 19 19 19 18 17 16 16 16 17 17 18 19 21 22 23 24 25 25 26 27 29 31 32
15 16 15 16 19 15 7 7 9 9 11 13 14 15 16 17 17 20 22 21 21 20 18 19 18 17 17 17 18 18 19 20 21 22 23 24 25 26 26 27 29 31 33 34
16 15 14 15 16 17 12 8 10 13 15 15 16 16 17 20 23 24 24 22 21 20 19 19 18 18 18 19 19 19 20 21 23 24 25 26 26 27 28 30 32 34 35 36
19 17 16 14 13 13 15 13 14 14 15 16 15 16 20 23 23 23 22 22 21 20 20 19 18 19 19 20 20 21 22 23 24 26 26 27 28 30 31 32 34 36 37 38
20 20 18 15 13 15 16 15 16 17 16 15 16 20 22 23 23 22 21 21 20 20 20 19 20 20 20 21 22 22 23 25 26 27 28 29 30 31 33 35 36 37 39 41
21 19 19 16 14 16 15 16 16 15 14 16 19 20 20 22 20 19 20 20 20 20 21 21 22 22 22 22 23 24 25 26 28 28 29 31 32 33 35 36 38 39 41 43
21 19 17 16 16 16 17 19 19 18 17 18 18 19 20 21 20 20 21 20 21 21 22 23 24 24 24 24 25 26 27 28 29 30 31 33 34 36 37 39 40 41 43 45
21 19 17 17 16 16 21 24 22 21 21 20 19 19 19 20 19 21 23 24 24 24 25 25 25 26 26 26 26 27 28 30 31 32 33 35 36 38 39 41 43 44 45 46
22 19 18 16 16 18 24 24 24 22 23 20 20 21 22 24 25 25 25 26 27 27 27 27 27 28 28 28 29 30 31 32 34 35 36 38 40 40 40 42 45 46 46 47
21 21 21 20 20 24 26 26 25 23 23 23 23 25 26 28 29 28 28 28 29 28 29 29 29 30 30 30 32 32 34 35 37 38 39 40 41 42 44 45 46 48 48 48
21 23 25 26 26 27 27 27 27 25 24 26 27 28 29 29 29 30 30 30 30 29 30 31 32 32 32 33 34 35 37 39 40 41 43 43 44 45 47 48 49 49 49 50
25 26 27 29 30 28 27 29 29 29 28 29 30 30 30 30 30 30 31 30 31 31 33 34 35 35 36 36 37 39 40 41 42 44 46 47 48 49 49 49 50 50 51 52
29 29 29 30 32 32 31 31 31 31 32 32 31 32 32 32 32 33 32 32 34 35 35 36 37 38 39 40 40 41 43 44 45 48 49 49 50 50 50 50 51 52 52 52
30 30 30 31 31 32 34 34 33 33 33 32 32 33 33 33 34 34 34 35 36 37 37 38 39 40 42 43 44 45 46 47 48 49 51 51 51 52 52 52 53 52 52 51

GEFSCGP_500_meanwind_072.txt.gz
Wind_Speed
5 6 11 14 15 16 16 17 17 16 15 15 15 14 13 11 8 7 4 2 2 4 6 7 8 7 6 5 4 4 4 4 5 6 6 6 6 7 8 8 9 10 10 11
7 6 10 13 14 15 15 15 16 16 15 16 15 14 13 10 8 7 5 2 1 3 4 6 7 5 4 4 3 3 3 3 4 4 5 5 6 7 8 9 9 10 11 11
9 7 9 11 12 14 14 14 15 15 15 14 13 10 11 10 8 8 7 5 4 4 5 5 4 4 4 3 3 2 2 2 3 4 5 6 6 7 8 9 10 11 12 12
8 8 9 10 11 13 13 13 14 14 14 15 11 7 8 9 8 9 8 7 6 5 5 4 4 5 4 3 2 1 1 1 2 3 4 6 7 8 9 10 11 12 13 13
8 9 10 11 11 12 13 13 12 12 13 12 8 5 7 7 9 10 9 8 8 6 5 4 4 4 2 2 2 2 2 1 2 3 4 6 7 9 10 11 12 13 13 14
9 10 11 12 11 11 12 11 10 10 11 10 5 4 6 7 8 10 9 8 7 6 5 4 3 2 1 1 2 2 1 1 2 3 5 6 8 9 11 11 12 13 14 15
11 12 11 11 10 10 12 12 11 10 10 10 6 3 4 6 7 8 8 7 7 6 5 4 3 2 2 2 2 2 2 2 3 4 5 7 8 10 11 12 13 14 15 16
14 12 12 13 11 10 11 13 12 12 11 11 7 2 2 4 5 6 6 6 5 5 4 4 3 2 1 2 2 2 2 3 4 5 6 8 9 10 12 13 14 14 15 17
16 14 13 13 12 12 13 13 13 13 11 10 7 3 2 1 3 4 4 3 3 3 3 2 1 0 1 2 3 3 3 4 5 7 8 9 10 11 12 13 14 15 16 17
15 14 13 14 14 14 14 14 14 14 13 10 5 2 3 3 1 1 1 2 2 2 2 2 2 2 2 3 4 4 4 5 7 8 9 11 12 12 14 15 16 17 18 19
15 16 15 16 16 17 17 18 17 15 14 12 10 8 7 7 5 3 1 1 2 2 3 3 3 3 3 4 4 5 6 7 8 10 11 12 13 14 16 17 18 19 20 21
16 18 18 18 18 18 18 18 17 16 16 15 14 11 9 9 8 6 4 5 5 4 4 4 4 4 4 5 6 7 8 9 11 12 13 14 15 16 17 18 19 21 22 23
17 19 19 17 17 18 18 17 16 18 17 17 15 12 10 10 10 9 8 9 8 6 6 6 6 6 6 7 8 9 10 12 13 14 15 16 17 18 19 20 21 23 24 26
19 20 20 19 17 17 15 15 16 16 17 17 16 14 14 13 13 12 11 10 9 8 8 8 8 8 8 8 10 11 12 14 15 16 18 19 20 20 21 22 23 25 26 27
21 21 21 19 18 17 16 15 15 15 15 17 17 17 17 16 15 13 13 13 11 10 10 10 10 11 11 11 12 13 14 16 17 18 19 21 21 22 23 24 25 27 29 30
22 22 20 19 19 19 18 15 16 16 17 18 19 19 18 17 17 15 14 14 13 12 12 12 13 13 14 14 14 15 16 18 19 20 21 22 23 24 25 26 28 29 30 32
23 24 22 20 18 19 18 17 18 19 20 19 22 22 21 20 18 16 15 17 15 13 13 14 14 15 16 17 17 18 19 20 21 22 23 24 25 27 27 28 29 31 32 34
23 23 22 20 20 19 17 18 19 21 21 22 23 24 24 22 21 18 17 17 15 14 14 15 16 17 18 19 20 21 22 23 23 24 25 26 27 28 29 31 32 33 34 35
23 23 22 21 21 19 18 20 21 21 22 22 22 23 23 23 22 20 19 17 17 16 16 18 19 19 20 21 22 23 24 25 26 27 28 29 30 31 32 33 34 35 36 37
22 22 23 23 22 21 19 20 22 23 22 22 23 24 24 24 24 24 22 19 19 19 20 21 22 22 23 24 24 25 26 27 28 29 30 32 32 33 35 36 37 38 39 39
24 24 23 23 23 21 20 20 20 21 20 22 23 23 24 23 24 23 21 20 20 22 23 24 25 25 25 26 26 27 29 30 31 31 32 34 35 36 37 38 39 40 41 41
25 25 25 25 24 21 21 20 19 19 19 19 20 21 22 21 21 21 22 23 23 24 25 25 26 27 28 29 30 31 32 33 34 35 35 36 37 39 39 40 41 42 42 43
25 26 26 26 24 23 23 21 20 20 20 19 19 19 21 22 22 21 22 24 25 26 27 27 28 29 30 31 32 33 34 35 36 37 38 39 40 42 43 43 44 44 44 45
25 27 27 27 27 24 24 23 23 22 20 20 20 22 21 20 20 22 23 25 26 28 29 30 31 32 32 34 35 35 36 38 39 40 41 42 43 44 45 45 46 46 47 47
26 27 28 29 28 28 27 26 25 24 24 23 23 22 22 22 23 24 25 27 28 29 30 32 32 33 34 36 36 37 39 40 41 42 43 44 46 47 47 48 48 49 48 49
28 29 29 30 30 30 28 26 25 25 24 23 24 24 24 25 26 27 27 28 29 30 31 33 34 35 36 38 39 40 42 42 43 45 46 47 48 49 50 50 50 51 51 52

GEFSCGP_500_meanwind_078.txt.gz
Wind_Speed
7 7 8 9 10 11 11 12 13 14 14 14 15 14 12 10 8 7 5 3 3 8 12 15 15 14 14 13 11 10 8 7 6 4 3 2 3 4 5 6 7 7 7 8
7 8 8 9 10 11 12 13 13 13 14 14 14 13 12 9 7 5 4 2 1 4 10 13 14 15 15 13 12 10 9 8 6 4 3 2 2 3 4 6 6 7 7 8
8 8 8 9 10 12 12 13 12 13 14 14 12 11 11 8 5 3 3 1 1 4 9 11 13 13 15 14 12 9 9 7 6 4 3 2 1 2 4 4 5 6 6 7
7 7 8 9 10 12 12 12 12 12 13 13 12 11 9 8 5 4 3 3 2 5 7 9 9 11 12 12 11 10 10 8 6 5 4 3 2 2 3 3 4 5 6 7
7 8 8 10 11 11 13 13 13 11 11 11 10 10 8 7 5 4 4 4 3 4 6 7 7 8 9 10 10 11 10 8 6 5 5 3 2 2 3 3 4 5 5 6
8 9 11 11 12 12 14 14 13 11 9 9 9 8 6 6 5 4 3 3 3 3 5 6 6 7 9 9 9 10 9 8 7 6 5 4 3 3 3 4 4 5 6 7
9 10 12 13 12 13 14 14 13 11 10 9 9 8 7 7 5 4 3 2 2 2 3 4 6 6 8 8 9 9 8 8 7 6 5 5 4 4 4 5 5 6 7 8
11 11 13 14 13 14 15 14 14 14 13 10 9 8 8 7 5 5 4 3 1 0 2 3 5 6 6 7 8 8 8 8 8 7 7 6 6 6 6 6 7 7 8 9
13 13 14 14 13 15 15 14 14 15 13 11 9 8 8 8 7 7 6 5 3 2 2 4 5 6 7 8 8 9 9 9 9 8 8 8 7 7 7 8 9 9 10 11
15 15 14 14 14 15 15 16 16 16 14 12 10 8 9 9 9 9 8 7 6 6 6 6 7 7 8 9 10 10 10 10 10 10 10 9 9 9 10 10 11 12 13 14
16 15 13 13 14 15 16 17 18 17 16 15 11 8 10 10 10 10 10 9 8 9 9 9 9 9 10 11 11 11 11 12 12 12 11 11 11 11 12 12 13 14 15 16
15 15 14 14 15 16 17 18 18 18 17 15 14 10 11 12 12 11 11 11 11 11 11 11 11 11 12 12 12 12 13 13 14 13 13 13 13 14 14 15 16 17 18 19
16 15 15 15 15 17 18 18 19 18 17 15 15 12 13 13 13 13 13 13 13 13 13 13 13 13 13 13 13 13 14 15 15 15 15 15 16 16 16 17 18 19 20 21
15 16 16 17 17 17 17 18 19 19 18 16 15 14 14 14 14 14 15 15 15 15 15 15 14 14 14 14 15 15 15 16 17 17 17 18 18 19 19 20 21 22 23 24
16 16 17 17 18 18 18 18 19 19 19 18 16 15 15 16 16 16 16 16 16 16 16 16 16 16 16 16 16 16 17 18 18 19 19 20 21 21 22 23 24 25 26 26
17 17 17 18 19 20 19 18 19 20 20 20 19 18 17 17 17 17 18 19 19 19 18 18 18 18 17 18 18 18 18 19 20 20 21 21 22 23 24 25 26 27 28 28
18 18 18 18 19 21 20 19 20 20 20 21 20 18 19 19 18 19 19 20 21 20 20 20 20 20 19 19 19 20 20 20 21 22 22 24 25 26 27 28 28 29 30 31
20 19 19 19 19 20 19 20 20 20 20 20 19 19 19 20 20 20 20 19 20 21 21 21 22 22 21 21 21 20 21 22 23 24 25 26 27 28 29 30 31 32 33 33
19 20 20 19 20 19 18 19 20 20 20 20 19 19 19 20 21 22 21 21 21 22 23 24 25 25 24 24 23 23 24 24 24 25 26 28 29 30 31 32 33 34 35 36
19 20 20 19 20 19 18 19 19 20 20 19 19 19 19 20 20 21 22 22 23 24 25 26 27 27 26 26 26 26 26 26 27 28 29 31 32 32 33 35 36 37 38 39
19 19 20 20 20 19 19 18 19 20 20 19 19 19 18 18 19 20 21 21 21 23 25 26 27 27 27 27 26 26 27 28 30 32 33 33 34 35 36 38 39 41 42 43
20 20 21 20 20 19 19 18 19 19 19 19 18 18 19 19 19 19 20 20 21 23 24 25 26 27 27 27 27 28 29 30 32 33 34 36 37 38 40 41 42 44 45 46
21 22 22 21 20 19 19 19 20 20 19 19 19 19 20 20 20 19 20 20 21 22 23 25 26 27 27 28 29 31 32 34 35 36 37 39 40 41 42 44 45 46 48 48
22 22 23 22 21 21 20 20 21 20 20 20 20 21 21 21 21 20 19 19 20 21 23 24 26 26 27 28 30 32 34 36 37 38 39 41 42 43 45 46 48 49 49 51
24 24 24 24 23 23 22 22 23 23 23 24 23 22 22 23 22 20 20 20 21 23 24 25 26 26 28 30 32 33 35 37 38 40 41 43 44 46 47 49 51 52 54 55
25 26 26 25 24 24 24 24 24 24 24 24 23 23 24 25 23 23 23 23 24 25 26 26 28 29 31 32 34 36 37 39 41 42 44 45 47 48 50 52 53 55 56 57

GEFSCGP_500_meanwind_084.txt.gz
Wind_Speed
9 8 7 8 9 10 12 13 14 15 15 15 16 16 16 14 12 9 5 5 6 7 10 14 16 17 19 20 19 19 16 15 13 10 9 7 6 4 3 2 1 0 1 2
8 8 9 9 10 11 12 13 14 14 15 16 15 15 15 13 12 9 6 4 3 5 7 11 15 16 17 18 19 19 17 15 13 11 9 8 6 5 4 3 2 1 1 2
9 8 9 9 10 11 11 13 14 14 15 15 15 14 14 12 12 10 7 4 3 4 6 9 13 15 17 17 18 18 15 15 13 11 10 8 7 5 4 4 3 2 1 2
10 9 9 9 10 11 12 13 14 14 14 14 14 13 13 12 11 10 9 5 3 2 3 7 12 14 16 17 17 17 16 14 13 12 10 9 8 6 5 4 3 2 1 1
10 10 10 10 11 12 12 13 14 13 13 13 13 12 12 12 11 10 9 7 4 2 1 5 10 13 15 16 16 16 15 14 13 11 11 9 8 7 6 5 4 3 2 2
11 11 11 12 13 13 13 13 14 13 13 12 12 10 10 11 10 9 8 7 5 3 1 2 6 11 13 15 15 15 15 14 13 12 11 10 9 8 6 6 5 5 4 4
12 12 13 13 13 12 13 14 13 12 12 12 13 10 9 9 9 8 6 5 5 4 3 1 3 7 10 13 15 15 15 14 13 12 11 10 9 8 8 7 7 7 6 6
13 13 15 15 13 14 14 13 12 11 11 12 13 10 10 9 8 7 6 5 4 4 3 2 2 5 7 10 12 13 14 14 13 13 12 11 10 10 9 9 9 9 9 8
14 14 15 16 15 16 15 12 11 12 12 10 10 12 12 11 9 8 7 6 5 4 4 3 2 4 6 8 10 12 13 13 13 13 13 12 12 11 11 11 11 11 11 11
15 16 17 17 17 16 14 13 12 11 11 10 10 11 11 12 10 9 9 8 6 6 5 4 4 5 6 8 9 11 12 13 13 13 14 14 13 13 14 14 14 14 14 14
16 17 18 18 17 16 14 13 12 12 12 9 9 10 13 12 10 10 9 9 8 7 6 6 6 6 7 9 10 11 12 12 13 14 15 16 16 16 16 16 17 17 17 17
18 17 18 18 17 15 14 13 13 12 12 11 10 11 14 12 11 11 10 10 10 10 9 8 8 8 9 10 11 12 12 13 15 16 17 18 18 18 19 19 19 20 20 20
18 17 16 16 16 16 15 14 14 14 13 12 9 11 16 14 13 12 12 13 12 12 12 11 11 11 11 11 12 13 14 15 16 18 19 20 20 21 21 22 22 23 23 23
19 18 17 15 16 16 15 14 14 14 12 12 12 13 16 16 15 15 15 15 14 13 13 13 13 13 13 13 14 15 15 16 18 19 20 21 22 23 24 24 25 25 25 26
21 20 19 18 17 16 16 16 16 14 13 13 13 15 17 18 17 17 17 17 17 16 16 16 15 16 15 16 16 17 18 19 20 21 22 23 24 25 26 27 27 27 28 28
22 21 19 19 18 17 18 18 17 15 15 15 15 16 18 18 18 18 18 19 19 19 19 18 18 18 19 19 20 21 22 22 22 23 24 26 26 27 28 28 29 29 30 30
22 21 19 19 20 19 19 18 17 16 16 16 16 17 18 18 19 19 20 20 20 22 22 22 22 22 23 23 24 24 25 26 26 26 27 28 29 29 30 30 31 31 32 32
24 23 21 20 22 20 19 18 18 18 18 18 18 18 18 18 19 20 21 22 23 24 25 25 25 25 26 26 27 27 28 28 29 29 30 30 30 31 32 32 33 33 33 33
24 23 22 21 21 21 20 18 18 18 18 18 18 19 19 19 20 21 22 22 23 25 26 27 28 28 29 29 30 30 30 31 32 32 32 32 32 33 34 35 35 35 34 34
24 23 22 21 21 20 22 20 19 18 19 18 19 19 20 20 21 21 21 23 24 26 27 29 30 31 31 31 31 32 32 33 34 35 34 34 35 35 35 36 37 37 37 37
24 22 21 20 20 20 22 19 19 19 19 19 19 19 19 20 22 22 22 22 23 25 26 28 30 31 32 32 33 34 35 35 35 36 37 37 37 38 38 38 38 39 40 41
22 22 21 20 20 22 21 20 19 20 20 20 19 20 20 21 22 23 23 24 24 24 25 27 29 30 30 31 32 33 35 36 36 36 37 37 37 38 40 41 41 41 41 43
21 20 20 21 22 22 21 21 21 21 21 21 21 21 22 22 22 23 23 24 25 26 26 27 28 28 29 29 31 32 34 35 36 37 38 38 39 39 40 41 42 43 44 44
20 20 21 21 22 22 22 22 22 22 23 23 23 23 23 24 24 24 24 25 25 25 25 26 25 26 27 29 31 32 33 34 34 35 37 38 38 38 40 41 43 44 46 47
20 20 20 21 21 21 22 23 23 24 24 24 24 24 24 25 25 26 26 26 26 26 26 26 27 27 28 28 30 31 32 33 34 35 36 38 39 41 42 43 44 46 47 48
21 21 21 22 22 22 23 24 25 25 25 25 26 25 26 26 27 27 27 26 26 27 27 28 28 29 29 30 31 32 33 34 36 37 39 40 41 42 43 45 46 48 50 52

GEFSCGP_500_meanwind_090.txt.gz
Wind_Speed
8 6 5 6 9 10 10 11 15 15 16 19 18 17 18 19 19 20 18 15 12 10 9 10 11 12 13 14 15 15 15 14 13 11 10 10 9 7 6 5 3 2 1 1
8 5 5 8 11 10 11 13 15 16 17 18 16 15 15 17 17 18 18 15 12 10 9 8 10 11 12 13 14 16 15 13 13 11 10 10 9 8 7 5 4 3 3 2
10 7 8 12 13 11 13 14 15 16 14 15 16 16 15 15 17 17 17 15 12 10 8 7 6 7 9 11 12 14 14 14 14 12 11 9 8 8 7 6 5 4 4 2
10 9 12 14 14 13 14 14 16 15 14 15 13 14 15 15 15 16 16 15 12 10 9 7 5 5 7 9 11 13 14 14 14 12 11 10 9 8 8 7 6 5 4 3
10 10 13 15 15 14 14 14 14 14 16 15 13 12 12 15 15 15 16 14 11 10 9 7 4 5 7 8 10 11 13 14 13 12 11 11 11 9 9 8 7 6 5 4
13 14 16 17 16 15 14 14 13 16 19 16 13 11 11 15 15 16 16 14 11 9 8 7 4 4 6 8 9 11 12 13 12 11 11 12 11 10 10 9 8 7 6 5
12 14 16 18 16 14 14 15 16 17 20 19 17 12 11 14 15 15 15 14 11 9 8 7 5 4 5 7 9 10 12 11 11 11 11 12 12 11 11 10 9 8 8 7
13 14 13 14 15 15 14 15 17 18 17 18 16 14 13 13 14 14 14 13 11 8 8 7 6 4 4 6 8 9 10 10 11 11 12 13 13 12 12 11 11 10 10 9
14 16 15 14 15 15 16 15 16 18 16 17 16 15 14 12 13 15 14 13 11 9 8 7 6 5 4 4 6 8 10 10 11 11 12 13 13 13 13 13 13 12 12 11
16 18 17 17 17 17 17 16 15 15 15 14 17 20 16 14 14 14 13 13 11 9 8 8 7 5 5 4 6 8 9 10 11 13 13 12 12 13 14 14 14 14 14 14
19 22 19 19 19 18 18 18 16 14 15 15 18 21 18 16 14 14 13 13 12 10 8 8 8 7 6 6 6 7 9 10 12 12 12 12 13 14 15 15 15 16 16 17
23 25 24 22 23 23 21 19 17 16 15 14 15 21 18 14 12 14 14 14 12 11 10 10 9 8 7 6 7 7 8 10 11 12 13 14 15 16 16 16 17 18 18 19
26 28 27 23 24 24 22 19 17 16 16 14 16 21 19 15 15 13 14 15 14 13 12 12 11 10 9 8 8 9 9 10 11 13 14 15 16 17 17 18 19 20 20 21
29 31 28 23 24 24 20 18 19 17 16 16 18 20 21 18 16 15 16 17 16 15 14 14 13 12 11 11 11 10 11 12 12 13 15 16 17 17 18 19 20 22 23 23
30 31 28 25 24 23 20 16 15 15 15 15 19 21 23 22 21 19 19 19 18 18 17 16 15 14 13 13 13 14 14 14 15 15 16 17 18 19 20 21 22 23 24 25
31 31 29 26 23 22 21 16 14 15 16 16 19 22 23 24 22 21 21 19 19 19 18 18 18 18 17 16 17 17 18 18 19 19 20 21 21 22 23 24 24 25 27 28
34 32 31 27 23 23 22 19 18 19 19 19 22 24 24 24 23 21 20 19 19 20 20 20 20 20 20 20 20 20 21 22 22 23 24 25 25 26 27 27 28 29 30 30
32 31 31 28 26 26 23 24 23 21 21 23 26 26 25 25 24 24 23 21 21 21 21 22 22 23 23 23 24 24 25 26 26 27 28 29 30 31 31 31 31 32 31 32
33 29 30 28 27 26 25 24 25 24 23 24 25 24 24 24 25 24 23 23 22 22 22 23 24 24 25 25 26 26 27 29 30 30 30 30 31 33 34 33 33 33 34 35
31 30 30 29 27 26 27 26 25 24 24 24 25 26 26 26 25 23 22 22 22 23 23 24 24 25 26 27 28 29 29 31 32 32 31 32 32 33 33 34 34 35 35 36
26 27 28 28 27 28 29 27 25 26 27 26 24 24 24 24 24 22 22 22 23 23 24 25 26 26 27 28 28 29 30 31 32 32 33 34 35 36 36 37 36 36 36 37
29 29 29 29 29 31 31 27 26 26 25 22 22 24 23 24 24 23 23 24 24 24 25 25 26 27 28 28 29 29 30 32 33 34 34 35 35 36 36 36 35 36 37 38
29 30 28 29 30 30 28 26 24 23 24 24 24 25 25 26 25 25 25 25 25 26 26 26 26 27 28 29 30 30 30 31 33 34 35 36 35 35 35 36 37 38 38 38
22 24 25 23 24 25 25 26 25 24 24 26 26 26 26 27 27 26 26 26 26 27 27 28 28 28 29 29 30 31 31 31 32 34 34 34 34 35 36 36 36 37 37 38
12 15 19 23 23 21 23 23 22 22 24 25 25 26 26 27 27 27 27 27 28 28 29 29 29 29 29 29 29 30 30 31 31 31 32 32 33 34 34 35 36 37 39 41
13 14 17 19 20 21 22 22 22 23 24 24 25 25 26 26 27 27 27 27 28 29 29 29 29 29 30 30 30 31 31 32 32 32 33 34 35 35 36 37 38 40 41 42

GEFSCGP_500_meanwind_096.txt.gz
Wind_Speed
13 12 10 9 8 5 6 9 13 15 16 18 19 20 20 19 18 15 14 14 13 12 10 9 6 4 6 9 11 12 12 13 13 13 13 12 11 10 9 9 8 7 7 6
13 12 12 12 9 5 7 11 14 15 16 19 19 19 19 17 15 13 12 12 12 12 10 9 6 3 6 7 10 13 12 12 13 13 13 12 12 11 10 10 9 8 8 7
13 14 15 14 10 7 7 12 15 16 17 18 20 18 18 15 12 12 11 11 11 11 10 8 6 2 4 7 10 11 11 12 13 13 13 13 13 12 11 11 10 10 9 8
14 16 17 16 12 8 9 12 15 16 17 17 17 16 15 15 10 9 9 10 10 10 9 8 6 3 3 7 8 10 11 11 13 13 13 13 14 13 13 12 12 11 10 9
13 16 17 17 13 11 10 13 15 16 18 18 17 17 15 12 7 5 8 9 8 8 8 8 6 4 1 5 7 9 10 11 12 13 13 13 14 14 14 14 13 12 11 10
13 16 17 16 15 13 12 14 16 16 18 19 18 16 15 11 7 5 6 8 7 6 7 7 6 4 1 3 5 8 10 11 11 13 14 14 14 15 15 15 14 13 12 11
14 15 15 15 14 14 14 15 17 18 17 18 18 17 13 9 7 5 5 6 6 6 7 7 6 4 1 1 5 7 10 11 11 13 14 15 16 15 15 15 15 14 13 12
13 13 14 15 13 12 12 15 18 19 18 17 17 17 13 9 8 6 5 6 6 5 5 5 5 4 2 1 4 7 9 10 11 13 14 16 17 16 16 16 16 15 14 13
13 12 15 16 15 13 12 14 16 18 18 18 18 17 13 10 10 7 7 6 6 4 3 3 3 3 2 1 3 6 9 10 11 12 13 15 15 16 16 16 17 17 16 15
16 16 16 18 18 16 16 15 16 18 19 20 19 18 16 13 10 7 6 6 5 4 4 3 3 3 3 2 2 5 7 8 11 12 13 14 16 17 17 17 18 18 17 17
23 22 18 20 20 18 18 19 19 19 20 21 21 19 18 16 11 8 7 5 5 5 4 4 3 3 4 3 2 4 6 8 10 11 13 14 16 17 18 18 19 19 19 19
27 26 24 23 22 22 22 21 21 22 22 23 22 19 19 16 13 10 9 7 6 5 4 4 4 4 4 4 3 4 5 8 11 12 14 15 17 18 19 19 20 20 21 21
30 30 29 26 25 25 25 24 22 23 22 22 21 20 19 17 14 12 11 8 6 5 5 5 6 6 6 6 6 6 7 8 10 13 14 16 17 18 19 20 21 21 22 22
35 35 34 32 28 26 27 27 25 24 22 22 20 19 19 18 15 12 10 9 8 6 6 6 7 8 8 9 9 9 10 10 11 12 13 15 17 18 19 21 22 24 24 24
41 40 37 35 32 31 30 28 27 25 23 22 20 20 20 18 14 12 10 9 9 7 8 8 8 9 9 10 10 10 11 12 13 14 14 15 18 19 21 22 24 25 26 26
45 44 41 39 35 33 33 31 29 27 25 22 21 21 19 16 13 12 12 10 10 9 8 9 9 9 10 11 12 12 13 14 15 17 17 19 20 22 23 24 25 26 26 27
47 46 44 42 39 37 36 32 29 28 26 23 21 20 19 17 14 13 14 13 11 11 10 10 10 11 11 12 14 14 15 17 18 18 20 20 22 23 24 25 25 25 25 27
45 46 46 43 39 40 35 31 30 28 27 25 23 22 20 17 16 15 14 13 12 13 12 11 12 13 13 14 15 16 17 19 20 21 21 22 21 23 24 24 25 26 26 27
39 42 43 42 40 40 37 34 30 28 27 25 25 23 21 18 16 16 16 14 14 14 14 14 14 15 15 16 17 17 19 20 21 23 23 23 24 25 25 26 26 27 27 29
37 38 41 42 41 40 36 33 30 28 28 26 24 21 18 18 18 17 17 16 15 15 15 16 16 18 18 19 19 19 21 22 23 23 23 25 26 27 27 27 27 28 28 28
34 35 36 38 40 39 35 34 32 30 27 26 24 23 21 19 19 19 19 17 16 16 16 17 18 19 20 21 21 22 23 24 24 25 26 27 27 27 28 28 28 28 28 29
28 32 34 34 36 37 35 33 32 30 27 26 24 22 20 20 19 19 19 17 17 17 17 19 20 21 21 22 24 24 25 25 26 27 27 28 28 29 30 30 29 29 29 29
26 28 29 29 30 31 32 31 30 28 26 25 22 22 21 21 21 19 18 17 16 17 19 20 21 22 23 24 25 26 27 28 28 29 29 30 30 30 30 31 31 32 32 32
19 21 24 26 27 27 25 26 27 27 23 22 22 21 20 20 18 18 18 18 18 19 20 21 22 23 24 26 27 28 29 30 30 31 31 31 32 32 32 32 32 33 33 34
13 16 19 22 24 24 22 21 22 22 21 20 20 18 18 18 17 16 17 17 18 19 20 22 23 25 26 27 28 29 30 31 32 33 33 33 33 34 34 34 34 34 34 35
11 11 12 14 15 16 16 17 17 18 18 16 16 16 16 15 15 16 17 17 18 20 21 23 24 25 26 27 29 30 31 31 32 33 33 34 34 35 35 36 36 36 37 38

GEFSCGP_500_meanwind_102.txt.gz
Wind_Speed
19 18 16 16 16 15 15 14 13 13 13 13 14 15 17 17 17 16 15 14 14 11 9 7 6 5 6 8 12 15 15 15 16 16 16 16 15 13 13 12 11 10 9 8
19 17 18 18 17 17 17 16 15 14 14 14 14 16 17 17 17 15 13 13 13 12 9 7 5 5 6 7 10 13 15 16 16 16 16 16 15 14 14 13 13 11 10 9
19 18 21 19 17 18 17 17 17 16 15 14 14 15 16 16 15 14 13 12 12 12 10 7 5 5 5 8 9 14 15 16 15 16 17 16 15 15 15 15 13 12 11 10
18 20 21 19 18 18 18 18 18 16 15 14 14 15 14 16 15 14 13 11 11 11 10 8 6 4 6 8 9 12 14 15 14 14 15 16 14 14 15 15 14 13 12 11
18 20 21 19 18 19 18 18 18 16 15 14 15 15 14 15 14 13 12 11 11 10 9 8 6 3 3 7 10 11 14 15 14 13 15 16 15 15 15 15 15 14 13 12
18 20 20 18 17 18 17 18 18 16 15 14 14 14 13 14 14 12 11 11 10 9 8 7 6 4 2 5 8 11 14 15 15 14 16 16 15 15 15 15 15 15 14 14
17 18 17 16 16 17 17 17 18 16 14 12 13 12 13 12 12 11 11 10 10 9 8 7 6 4 2 4 6 10 13 14 16 15 16 17 16 16 16 15 15 15 16 15
15 15 16 15 14 16 17 18 18 17 14 12 11 11 12 10 10 11 11 11 9 8 8 7 5 3 2 3 5 8 11 14 15 14 15 16 16 16 16 16 16 17 17 16
16 16 17 16 16 17 17 17 17 18 16 14 12 11 9 8 10 11 11 11 10 8 7 6 5 4 3 2 5 7 11 13 14 14 15 15 16 17 17 17 18 18 18 18
20 20 19 18 19 18 18 17 18 18 18 16 13 11 10 10 10 10 11 11 9 8 7 7 6 5 4 3 4 7 10 12 14 15 15 16 16 17 18 19 19 19 19 19
22 20 20 22 21 20 20 20 19 19 19 18 16 12 12 12 10 10 11 11 10 8 8 8 7 6 6 5 5 7 9 12 13 14 16 17 17 18 19 20 20 20 20 21
25 22 21 23 24 24 24 23 22 21 19 18 17 13 13 12 12 11 11 11 10 8 8 8 8 8 8 7 6 6 8 10 12 14 15 17 18 19 20 21 21 21 22 22
29 28 25 24 25 26 27 26 24 22 21 20 18 15 14 13 13 12 11 10 10 9 9 10 10 9 9 9 8 7 8 9 11 13 15 15 17 18 19 20 21 22 23 24
34 33 31 29 27 27 28 27 26 26 24 22 19 17 16 15 14 13 12 11 12 11 11 10 10 10 10 10 10 9 9 10 11 13 15 15 16 17 19 20 22 23 25 26
40 38 37 36 33 31 30 29 29 28 27 25 22 20 18 16 15 13 13 13 13 14 12 11 11 11 11 11 10 10 11 12 13 14 15 16 17 18 19 21 23 25 26 27
43 43 42 40 38 37 35 33 32 31 30 27 25 22 19 17 15 14 13 13 13 14 13 12 13 13 12 12 12 12 12 12 13 15 17 17 17 18 19 21 23 24 25 25
43 44 44 43 41 41 40 35 34 33 31 30 27 23 21 20 18 16 15 15 15 14 14 13 14 14 13 13 13 13 14 14 15 15 16 17 19 20 20 21 22 22 23 25
39 40 42 42 42 44 39 36 35 34 32 30 28 25 23 21 19 18 17 16 16 16 16 15 15 15 15 15 15 15 16 16 16 17 19 20 20 21 21 22 24 25 26 28
37 38 40 41 42 42 39 37 36 35 34 31 28 26 25 22 21 20 19 18 18 18 17 16 16 16 16 16 16 17 16 17 18 18 19 20 21 21 22 23 24 26 28 29
34 36 38 39 40 40 37 35 36 36 35 31 29 27 26 24 23 21 21 20 20 19 18 17 17 17 18 18 17 17 18 18 19 20 20 21 22 23 24 25 26 28 29 30
31 33 35 37 38 37 35 34 34 35 32 30 29 28 26 25 24 23 22 20 20 20 20 19 18 18 18 19 19 19 20 20 20 21 21 22 23 24 25 25 26 27 28 30
27 29 31 32 34 33 31 30 31 30 29 29 29 28 26 26 25 24 22 22 21 21 20 19 20 20 19 20 20 21 21 21 21 22 22 23 24 25 26 27 27 28 29 30
24 25 27 28 28 27 27 28 27 26 26 27 28 27 26 25 24 24 24 24 22 21 21 21 21 21 21 21 22 22 23 22 23 24 24 25 26 27 28 29 30 30 31 32
22 23 25 23 22 22 23 24 25 25 25 27 28 28 27 26 24 23 23 22 21 20 20 21 21 21 22 22 23 23 23 24 24 25 26 27 28 29 30 30 31 32 33 34
17 19 20 20 19 19 20 21 22 23 23 24 26 28 27 25 23 23 22 21 21 21 20 21 21 22 22 23 23 23 24 25 26 27 28 29 30 31 31 32 33 33 34 35
12 14 16 18 17 17 18 20 21 22 21 22 23 24 24 23 23 21 19 20 21 20 20 20 21 22 22 23 23 24 25 27 28 29 30 31 31 32 33 34 35 35 36 37

GEFSCGP_500_meanwind_108.txt.gz
Wind_Speed
18 17 16 15 15 14 13 12 11 12 12 12 14 15 16 15 15 14 12 11 11 9 9 7 5 5 6 7 10 13 15 16 16 17 17 16 16 15 14 12 11 10 10 9
20 18 18 17 15 14 13 12 12 12 12 12 13 14 14 14 15 14 12 11 11 10 8 7 7 6 7 7 9 11 14 15 15 17 17 16 16 16 13 12 11 11 11 10
21 19 19 17 15 13 13 13 12 12 11 12 12 12 14 14 14 13 12 12 11 10 8 7 7 6 6 6 8 11 13 15 15 16 16 16 16 15 14 12 11 12 11 11
20 20 19 17 15 14 14 14 13 11 10 10 11 10 13 13 13 13 13 11 10 9 8 7 6 5 5 5 6 10 12 13 15 15 15 15 15 15 15 13 13 13 12 12
19 19 18 17 16 15 16 15 13 12 11 10 11 10 11 12 13 13 12 10 9 9 8 6 6 5 5 5 6 9 11 13 14 14 14 14 15 15 15 14 14 13 13 13
18 18 18 17 17 17 16 14 13 11 11 11 11 11 9 11 11 11 10 9 10 9 7 6 5 5 5 5 6 8 11 13 14 15 15 14 15 16 15 14 14 13 13 13
17 17 17 17 17 17 16 14 12 11 11 11 12 11 9 10 10 10 9 9 10 9 7 6 5 5 5 6 6 7 11 14 14 15 15 14 15 16 16 15 14 14 14 14
15 16 17 17 17 17 17 15 14 12 11 11 13 11 10 10 11 10 9 9 9 9 8 6 5 5 5 5 6 7 10 13 14 15 16 15 16 17 16 16 15 15 15 15
15 17 16 17 18 18 18 16 15 14 13 11 11 12 11 10 10 10 10 9 9 9 7 6 6 6 6 5 5 7 8 10 13 14 15 16 16 16 17 16 16 16 16 16
17 17 17 17 18 18 18 17 16 14 13 11 11 11 11 11 10 10 10 10 10 9 8 6 6 6 6 5 5 5 6 8 11 14 15 16 16 16 17 17 17 18 17 17
20 19 19 19 19 18 19 18 17 16 14 12 11 11 12 11 11 10 10 10 10 9 8 7 6 6 6 5 5 5 6 8 10 13 15 16 16 16 16 16 17 18 18 19
24 22 21 21 20 20 20 19 19 18 17 15 13 12 13 12 11 11 11 11 11 10 9 7 7 7 7 6 6 6 7 8 10 12 14 16 17 17 17 17 18 19 19 20
27 26 23 21 22 23 23 22 21 21 20 19 16 13 15 13 13 12 12 12 11 11 10 8 8 8 8 8 7 7 7 8 9 11 14 16 17 17 18 18 19 20 20 21
29 28 25 22 21 23 24 24 24 23 22 20 18 16 17 16 15 14 14 13 13 12 11 10 9 8 8 8 8 7 7 8 9 10 11 13 15 16 18 18 19 20 21 22
32 31 30 28 28 27 25 25 25 25 23 21 19 18 18 18 18 17 16 15 14 13 12 11 10 10 10 10 9 9 9 9 9 10 11 12 13 14 16 17 18 20 21 22
35 34 32 31 30 30 28 26 26 26 25 24 23 21 21 20 19 18 17 16 15 15 15 14 13 12 12 12 11 11 11 11 11 11 12 13 14 14 15 16 18 19 21 22
34 34 34 33 33 34 33 29 28 28 26 26 25 24 24 23 22 21 20 18 17 17 17 16 15 14 13 13 13 13 12 12 12 12 13 14 15 16 16 17 18 19 21 22
32 33 33 33 34 36 31 29 29 29 28 28 28 26 26 25 24 23 22 21 20 20 19 18 17 16 16 15 15 15 15 14 14 14 15 15 15 16 17 18 19 20 22 23
31 32 33 33 33 34 32 31 29 29 29 29 29 27 27 26 25 23 23 23 22 21 20 20 19 19 18 17 17 18 18 16 15 16 16 17 17 17 18 19 21 22 23 24
29 30 32 33 33 33 32 31 29 30 31 29 29 28 27 27 27 25 24 24 23 22 22 21 21 21 20 20 19 19 19 19 18 18 18 19 19 20 21 22 22 23 24 25
27 29 30 31 32 32 31 29 29 30 30 29 29 29 28 28 28 26 26 26 24 24 23 23 22 22 22 21 21 21 20 20 21 21 21 21 22 23 24 24 24 25 26 27
26 27 28 29 31 31 29 28 30 30 29 29 29 29 29 29 28 28 28 27 27 26 25 25 25 24 24 24 23 23 23 22 22 23 23 23 24 25 26 26 27 27 28 30
24 26 27 28 29 28 27 28 28 29 29 29 29 30 30 29 28 29 29 29 28 28 27 26 26 26 26 26 25 25 25 24 24 24 25 26 26 26 27 27 28 29 30 31
23 24 26 26 27 27 27 26 26 27 27 28 29 29 29 29 28 29 30 30 29 29 28 27 27 27 26 27 27 26 26 26 26 26 26 26 27 27 27 28 29 30 31 33
21 22 23 25 25 25 25 25 24 25 26 27 28 28 29 29 29 30 31 30 29 29 28 27 27 27 27 27 26 26 26 26 26 26 26 27 28 28 28 29 30 32 33 34
19 20 20 21 22 22 21 22 22 23 24 25 26 27 28 28 29 30 30 29 29 29 28 28 28 27 26 26 25 25 25 25 25 26 26 27 28 28 30 31 33 34 35 36

GEFSCGP_500_meanwind_114.txt.gz
Wind_Speed
15 14 12 11 9 9 12 12 13 13 11 13 15 14 15 17 17 19 20 20 19 17 15 13 10 8 7 6 5 7 8 9 10 11 11 11 11 12 12 12 11 10 9 9
17 14 13 13 11 12 15 16 14 13 13 14 14 14 16 17 17 18 19 19 19 17 13 11 10 7 6 5 5 5 7 8 9 11 11 11 11 11 11 11 11 10 9 9
18 14 14 15 14 14 16 15 14 14 14 14 15 15 16 17 16 16 17 18 17 15 12 10 8 7 6 5 4 4 6 8 9 10 10 10 11 11 11 11 11 10 10 10
18 15 16 17 16 15 15 13 14 15 15 16 16 17 17 16 15 16 15 16 15 13 11 10 8 7 6 6 5 4 5 8 9 9 10 10 11 11 11 12 12 11 10 10
17 15 17 18 17 16 15 14 15 15 16 15 15 16 15 15 15 15 17 16 15 13 12 10 8 7 6 6 5 4 5 7 8 9 10 10 11 12 12 12 12 11 11 11
17 16 17 16 16 16 15 15 16 15 14 15 15 16 13 14 16 16 16 16 15 13 12 11 10 8 7 6 5 4 4 6 8 9 10 10 11 11 12 13 13 12 11 11
17 17 17 16 16 15 15 15 14 13 15 16 14 12 10 12 15 16 16 15 14 12 12 10 10 8 6 6 5 5 5 6 7 9 10 11 11 12 13 13 13 13 12 12
14 14 14 15 15 15 15 15 15 15 17 18 15 13 9 11 12 14 16 15 13 12 11 10 9 8 6 6 5 5 5 7 9 10 11 11 12 13 13 14 13 13 14 14
11 12 12 15 15 15 15 15 14 16 17 18 17 14 11 12 10 13 15 15 13 12 11 10 10 8 7 6 6 6 6 7 9 11 12 12 12 13 14 14 14 13 14 14
17 15 13 15 16 16 16 15 15 16 17 17 17 18 17 10 8 11 14 15 13 12 11 9 9 8 7 7 6 6 6 7 8 10 12 13 13 13 14 14 14 14 14 15
21 21 16 16 16 13 14 16 18 17 17 17 18 20 18 12 8 12 15 15 14 13 10 9 9 8 8 7 7 6 6 6 7 9 11 12 13 14 14 14 15 15 16 16
23 23 21 19 18 15 15 16 16 19 19 18 17 19 19 14 11 11 14 15 15 14 12 11 9 9 8 8 7 6 6 6 5 6 8 11 13 14 15 15 15 17 17 18
27 26 25 20 18 19 19 18 18 19 19 19 17 20 20 18 15 14 14 15 16 15 13 12 11 10 9 8 8 7 7 6 6 7 8 10 12 13 15 16 16 18 19 19
30 30 27 22 20 24 25 23 22 21 21 20 19 22 23 21 20 17 15 14 17 16 15 14 13 12 11 10 9 8 8 8 7 7 8 9 12 13 15 16 17 18 19 20
33 33 31 29 26 25 24 24 25 25 23 23 24 24 25 25 21 19 18 17 17 17 16 16 15 13 12 11 11 10 10 9 8 8 8 9 11 13 14 16 17 18 18 19
33 35 33 32 30 29 28 25 23 22 22 25 27 26 27 28 25 22 21 19 18 18 18 17 16 15 14 13 13 12 11 10 10 9 9 10 11 12 13 15 16 17 17 18
31 33 33 32 31 32 31 25 23 23 25 26 28 29 30 29 29 27 25 22 21 22 21 19 18 17 16 15 14 14 13 12 12 12 12 12 12 13 14 15 16 17 19 19
31 31 31 31 32 34 30 28 28 29 30 30 31 32 33 33 30 29 26 25 25 24 22 21 20 19 18 17 16 16 15 14 14 14 14 14 14 14 14 15 16 17 18 19
32 32 31 30 31 31 29 29 29 30 31 33 34 33 34 36 34 32 30 29 27 25 25 24 22 21 19 18 18 18 17 16 16 16 17 17 17 17 17 18 18 19 19 21
31 31 30 30 30 29 29 30 30 30 33 33 33 35 36 35 34 33 32 31 29 28 26 25 24 23 21 20 20 20 20 19 19 19 19 19 19 19 19 19 20 20 21 22
28 29 29 29 30 29 31 31 30 31 34 34 34 35 36 37 36 34 33 32 32 30 28 27 26 25 24 23 22 22 21 22 21 21 21 20 21 21 21 21 22 22 23 24
26 26 27 27 28 30 33 32 32 34 34 34 34 35 35 35 35 35 34 33 32 31 29 29 28 27 26 25 24 23 24 23 22 22 22 23 24 23 22 23 24 25 26 27
29 28 28 28 30 33 33 34 33 34 35 35 35 35 34 34 34 35 34 33 33 32 31 29 29 28 27 26 26 26 26 25 25 25 25 26 27 26 26 26 26 26 28 29
28 29 28 29 31 32 32 32 33 33 33 34 35 35 35 34 34 34 34 34 33 32 31 30 30 29 28 27 28 28 27 27 27 27 27 28 28 28 27 27 27 27 29 30
25 27 28 27 28 30 31 32 32 32 32 32 33 34 33 33 33 32 32 33 33 32 31 31 31 31 30 29 28 29 30 29 29 29 29 28 28 28 28 28 28 29 30 31
26 27 28 27 27 28 29 30 30 30 30 30 30 31 31 32 32 32 31 31 31 32 32 30 30 30 30 29 29 30 30 29 30 30 29 28 27 28 28 29 30 31 32 32

GEFSCGP_500_meanwind_120.txt.gz
Wind_Speed
16 14 13 14 14 14 15 15 13 11 10 11 12 13 13 15 18 21 20 20 18 17 15 13 10 7 6 5 2 3 4 5 7 9 10 12 13 15 16 16 16 14 12 11
16 14 16 17 16 15 16 15 13 12 11 14 15 15 15 17 18 19 19 17 16 15 14 12 8 5 4 4 1 4 4 5 7 8 10 12 13 16 17 17 16 15 13 12
17 16 18 18 18 17 16 14 12 12 14 17 17 17 17 18 18 18 17 15 14 12 12 10 6 4 4 3 1 2 2 4 7 9 10 11 11 12 15 17 16 15 14 13
18 18 19 19 18 17 16 14 13 14 16 18 18 18 17 19 19 18 15 13 12 10 10 8 5 4 4 3 2 0 2 4 6 9 10 11 12 13 14 15 16 15 14 14
18 19 20 20 17 16 14 14 15 17 18 18 18 19 17 17 16 15 13 10 9 9 9 7 6 5 3 3 2 1 2 4 6 8 10 11 12 14 14 14 14 14 14 14
19 20 21 19 18 16 15 15 17 19 18 17 16 17 16 16 16 13 9 7 7 8 8 7 6 5 4 3 2 1 2 4 6 8 10 11 12 13 14 14 14 14 15 14
20 20 19 18 18 15 15 16 17 18 17 14 13 14 13 15 14 11 7 6 6 6 7 7 6 5 4 4 3 1 2 4 6 7 10 11 12 12 13 14 15 15 14 15
19 17 17 16 13 12 14 15 16 17 16 14 14 14 12 12 11 9 7 4 5 5 6 6 5 4 4 4 3 2 2 4 6 8 9 12 13 13 14 14 15 15 15 15
18 17 17 17 14 13 13 14 15 16 16 16 14 14 12 10 8 8 6 4 5 5 5 5 5 4 4 4 3 2 2 3 5 8 10 11 13 15 15 15 16 16 16 16
18 19 18 17 16 14 12 11 15 16 17 17 15 14 14 12 10 9 8 6 5 4 4 5 4 4 4 3 3 3 3 3 5 7 10 12 13 15 15 16 16 16 16 16
19 20 20 20 17 14 14 15 16 17 18 19 18 16 14 14 13 11 9 7 5 4 4 4 4 5 4 4 4 4 4 4 5 6 8 12 13 14 16 17 17 17 17 17
20 21 22 22 20 18 17 16 16 18 18 19 20 19 16 15 13 11 10 8 8 7 5 4 4 5 5 4 4 5 5 5 5 6 8 10 12 14 16 17 17 18 17 18
24 25 24 24 24 22 22 20 18 18 19 19 20 20 19 17 16 15 13 10 10 9 7 5 5 6 6 6 6 6 5 5 5 6 8 10 11 14 16 16 17 18 19 19
29 29 28 27 26 25 25 24 23 22 23 22 22 21 21 19 17 15 14 13 13 12 9 6 5 6 7 8 8 7 6 6 6 6 7 9 11 13 16 17 18 18 19 20
34 33 31 29 29 29 29 28 28 28 27 25 24 23 23 22 20 18 16 15 15 12 11 8 7 8 9 9 9 8 8 8 8 7 7 8 10 12 13 15 17 18 18 19
37 36 34 32 31 32 32 31 31 31 31 30 29 27 26 24 23 21 19 18 16 14 13 12 12 10 10 10 10 10 10 9 9 9 9 9 11 12 13 14 17 19 19 19
38 36 34 34 33 34 34 33 34 35 34 34 32 30 29 28 26 24 23 22 19 16 15 14 14 13 13 12 12 11 11 10 10 10 10 10 10 12 13 13 15 17 18 18
40 37 35 33 33 35 34 34 36 37 36 34 32 30 30 29 27 27 25 24 21 18 17 16 16 16 15 14 13 13 12 11 11 11 11 12 12 12 13 14 15 17 19 19
39 37 36 34 33 33 33 35 36 37 37 36 34 33 31 30 29 28 26 24 22 21 20 19 19 18 17 16 15 15 14 13 13 13 13 13 14 14 15 15 16 16 16 18
37 37 36 34 33 32 31 33 36 37 39 36 35 34 33 32 30 27 26 25 24 24 23 22 21 21 19 18 18 18 17 17 16 16 16 16 16 16 16 17 17 17 17 17
35 35 35 34 32 31 30 31 33 36 36 35 35 34 33 32 30 29 28 27 26 26 26 25 24 23 21 22 21 20 19 19 18 18 18 18 18 18 18 19 19 19 20 20
34 34 34 33 32 31 29 29 32 34 34 34 33 33 33 31 30 29 28 27 27 27 28 27 25 23 23 22 21 21 21 21 20 20 20 20 20 20 20 21 21 21 22 24
33 32 31 31 30 28 28 28 30 32 33 33 33 33 32 32 31 30 30 29 28 28 28 27 25 25 24 24 23 23 22 21 21 21 20 20 21 22 21 22 22 23 24 25
30 30 30 30 29 28 27 28 28 29 31 32 32 32 32 32 31 30 29 29 28 28 29 29 27 26 26 26 25 24 22 21 21 21 21 22 22 23 22 23 23 23 24 25
31 30 28 28 29 29 28 27 26 26 27 28 30 31 32 31 30 29 28 28 28 29 28 27 26 26 26 25 24 24 24 23 23 23 23 23 24 24 24 24 24 25 26 26
29 29 29 29 28 27 26 25 25 25 26 26 27 28 28 28 29 29 28 28 28 27 26 25 25 25 25 24 24 24 24 24 24 25 24 24 24 24 25 25 25 26 26 27

GEFSCGP_500_meanwind_126.txt.gz
Wind_Speed
19 17 17 18 17 17 17 15 14 16 18 18 18 17 16 16 16 16 16 16 17 18 19 17 15 12 8 6 3 3 6 9 12 13 14 14 15 17 17 17 15 15 14 13
20 18 19 19 18 18 17 16 16 17 19 20 19 19 17 17 17 16 16 17 18 18 18 15 15 11 6 4 2 3 5 8 11 12 14 15 14 15 16 16 15 14 15 14
21 21 21 20 19 18 18 17 17 19 20 21 21 18 17 17 17 16 15 17 18 17 16 13 13 9 5 3 2 2 5 8 9 11 13 14 13 12 14 14 14 14 14 14
23 23 22 21 19 19 18 18 19 20 21 21 21 19 16 17 16 15 16 16 16 15 13 12 9 6 3 1 1 2 5 7 8 10 12 13 11 12 14 14 14 14 13 13
24 24 23 21 20 20 18 20 20 20 21 20 20 19 15 15 14 14 15 15 13 11 11 10 8 4 2 2 2 3 5 6 8 10 12 12 12 12 13 14 14 14 14 14
25 25 23 21 21 21 19 20 20 20 20 19 17 16 14 13 13 13 12 12 11 10 9 8 7 4 2 2 2 2 4 6 8 9 10 10 11 12 13 14 14 14 14 14
25 24 23 22 21 21 20 20 21 20 19 17 15 15 12 11 12 11 10 11 10 9 8 8 7 5 3 1 2 2 3 5 7 9 9 9 10 10 13 14 14 14 14 14
25 24 23 21 20 20 20 19 19 18 16 15 14 13 11 10 10 9 9 9 8 7 8 7 6 5 3 1 2 2 3 4 6 8 10 10 10 11 12 14 15 15 15 16
23 22 22 21 21 22 21 19 18 18 16 15 15 13 10 9 9 9 8 8 7 6 7 7 6 5 4 3 3 2 3 4 5 7 9 11 12 12 13 15 15 15 15 16
23 22 21 21 22 22 22 20 19 18 16 16 14 12 10 9 9 9 8 7 7 6 7 6 6 4 4 4 4 4 4 5 6 7 9 11 12 13 14 15 16 16 16 16
24 23 22 22 21 22 21 21 20 19 17 16 15 12 10 10 10 9 7 7 7 7 7 7 7 6 5 5 5 5 6 6 6 7 9 10 12 14 15 16 16 16 17 17
23 24 24 23 23 23 22 21 20 19 18 17 15 12 11 10 10 10 8 8 8 7 7 8 8 7 6 6 6 6 6 7 7 8 9 11 12 13 14 16 16 16 17 17
24 24 25 25 26 25 24 23 22 20 20 18 16 13 12 11 11 10 9 9 8 7 7 8 8 7 7 7 6 6 7 7 8 8 9 11 12 12 14 16 17 18 18 18
25 25 25 25 24 25 24 24 23 22 21 20 18 15 13 13 12 11 11 10 9 8 9 9 8 7 7 6 6 7 8 8 8 9 9 10 11 13 14 15 16 18 19 20
27 26 25 24 25 26 26 25 24 23 22 22 20 19 16 15 15 14 13 13 12 11 11 10 8 8 7 7 8 8 8 9 9 9 10 10 11 13 14 15 16 17 19 20
31 29 26 26 26 27 28 28 27 27 26 25 24 22 20 18 18 17 16 16 15 14 14 12 10 10 10 10 10 9 9 9 9 10 11 11 12 13 14 15 16 17 18 19
34 32 30 29 28 28 30 29 29 29 28 27 26 24 22 20 19 19 19 18 17 17 16 15 14 13 12 11 11 11 11 11 11 11 12 12 12 12 13 14 16 17 18 19
37 36 35 34 33 34 31 30 30 30 30 30 29 27 25 23 22 22 21 20 19 18 18 18 18 17 16 15 14 14 14 13 13 13 13 13 13 13 14 14 14 15 18 20
40 39 39 38 37 36 34 32 31 31 31 29 29 27 25 24 24 24 24 22 20 19 20 21 21 20 19 18 17 17 16 16 15 14 14 14 14 14 14 15 15 16 17 18
39 40 40 40 39 39 35 33 33 32 32 29 27 27 26 25 25 25 25 24 22 22 22 21 21 20 20 20 19 19 19 18 18 16 16 16 16 16 15 16 17 18 18 18
36 38 39 39 39 38 36 35 34 33 30 28 27 27 26 26 26 26 26 26 24 24 23 22 21 22 22 22 21 20 21 20 19 19 19 19 18 18 18 18 18 19 19 19
35 36 37 37 37 37 35 34 32 31 30 29 27 27 26 26 26 26 26 26 26 25 24 24 23 24 24 23 22 22 22 21 22 21 21 21 21 20 20 20 21 21 20 20
33 34 35 35 35 34 33 33 32 31 30 29 28 27 26 25 25 25 26 26 26 27 26 25 24 24 24 23 23 23 23 23 23 23 23 22 22 22 22 22 21 21 22 23
30 30 31 32 32 31 30 30 30 29 29 28 28 27 27 26 25 25 25 25 25 26 26 25 25 25 25 24 24 23 23 24 24 24 23 23 22 22 23 23 23 24 25 25
30 29 29 29 29 28 28 28 28 28 28 28 27 27 26 25 26 25 25 25 25 26 26 25 25 24 24 24 24 24 24 24 23 23 23 22 22 22 23 24 25 26 26 26
29 29 28 28 28 28 27 27 27 27 26 26 25 25 25 24 24 25 25 24 25 25 25 25 25 25 25 25 24 24 23 23 23 24 23 23 23 24 25 26 27 27 27 27

GEFSCGP_500_meanwind_132.txt.gz
Wind_Speed
17 17 15 15 14 13 12 13 13 13 12 11 10 11 12 14 15 15 15 16 16 15 15 15 14 12 10 8 7 6 8 9 11 12 14 15 15 16 16 16 15 15 14 13
20 18 18 17 15 14 13 13 14 14 13 12 11 12 13 14 15 15 15 15 15 14 14 14 13 11 8 7 5 4 5 8 11 12 13 13 14 15 15 15 16 15 14 13
22 21 20 18 17 15 14 14 14 14 13 13 12 12 13 14 14 14 14 14 14 13 13 12 11 9 8 6 4 3 4 7 10 11 12 13 13 14 14 14 14 15 14 13
25 23 21 20 19 17 16 16 15 14 13 13 11 10 13 13 13 12 13 13 12 12 11 10 9 8 7 5 3 2 3 6 8 10 11 12 12 13 14 14 14 14 14 13
25 24 23 21 20 19 18 17 15 14 13 12 12 10 11 12 11 11 11 11 12 11 9 8 7 8 6 5 3 2 2 5 7 9 11 12 12 13 13 13 13 14 14 13
27 25 24 22 21 20 18 17 15 14 13 13 12 11 10 10 10 9 9 9 10 9 8 7 6 7 5 3 2 2 2 3 5 8 9 10 12 12 12 13 14 14 14 14
26 25 24 23 22 20 18 16 14 13 13 13 13 11 10 10 9 9 9 9 9 7 6 5 4 5 3 1 1 2 3 3 5 6 7 9 11 12 12 13 13 13 14 14
25 25 24 23 22 20 18 17 15 13 11 12 13 11 10 9 9 9 9 9 8 6 4 4 4 3 3 2 1 2 2 3 4 5 6 7 9 11 12 13 13 14 14 14
25 25 24 23 22 22 20 18 16 16 14 11 12 11 9 9 9 9 8 6 5 5 5 4 4 4 3 2 2 3 3 3 4 5 6 7 9 10 12 13 13 14 15 15
25 25 24 24 23 22 21 19 19 16 14 11 11 10 9 9 8 8 7 6 5 5 5 5 4 4 4 3 3 3 4 5 5 6 7 8 9 11 13 13 14 15 16 16
23 23 24 23 23 21 21 20 19 17 16 11 10 11 11 9 8 7 6 6 6 6 5 5 5 4 4 4 4 4 5 6 7 7 8 9 10 11 12 14 15 16 16 17
23 23 23 22 22 21 20 20 19 17 15 13 10 12 12 10 10 8 7 7 6 6 5 5 5 5 5 5 5 5 6 7 8 9 9 9 11 12 12 13 15 16 17 18
24 23 22 21 22 21 20 19 19 18 17 14 12 13 13 11 10 10 9 8 8 8 7 7 6 6 6 7 7 7 8 8 9 9 10 10 11 12 13 15 16 17 18 18
26 25 22 19 18 19 20 19 18 17 16 15 14 14 14 13 12 11 10 10 10 10 9 9 8 8 8 8 8 8 8 9 10 11 11 11 12 13 14 15 15 17 19 19
28 27 25 23 22 21 20 20 19 19 18 16 16 16 16 15 14 14 13 12 12 12 11 10 10 9 9 10 10 10 11 11 11 12 12 12 12 13 14 15 16 17 18 20
30 29 27 26 25 24 23 23 21 21 20 19 18 18 17 17 16 16 15 15 15 14 13 13 11 10 11 11 11 11 12 12 12 12 13 13 13 13 14 15 16 18 18 20
32 30 28 26 26 26 27 26 24 23 22 21 20 20 19 18 18 18 18 17 16 16 15 14 14 13 13 13 13 13 13 13 12 13 14 14 14 15 16 16 17 18 19 20
33 32 30 27 28 27 27 27 25 25 24 23 23 21 20 20 20 21 20 19 18 18 17 17 16 16 16 16 16 16 15 15 14 14 15 15 16 16 17 18 18 18 19 20
35 34 32 30 29 29 31 29 27 26 26 25 24 23 22 22 22 23 22 22 21 21 20 19 19 18 19 18 18 18 18 17 17 17 17 18 17 17 18 18 19 18 19 19
35 35 34 33 30 28 31 29 27 27 28 26 25 25 24 24 24 24 23 23 23 23 23 22 21 21 20 20 20 19 19 19 19 20 20 20 20 20 20 20 20 20 20 20
36 36 36 34 32 32 33 30 28 29 29 27 27 26 25 25 25 24 24 25 25 25 25 24 23 23 22 21 21 21 21 21 21 21 21 21 21 21 22 22 22 23 22 22
36 35 36 35 33 34 34 32 32 31 30 28 28 27 27 26 26 26 26 26 26 26 26 26 25 25 24 24 24 24 24 23 23 23 22 22 23 23 23 24 24 25 25 25
35 35 35 36 36 35 33 32 31 31 31 29 29 28 28 28 27 27 27 27 27 27 27 26 27 27 27 26 26 26 26 26 25 25 24 23 24 24 25 25 25 25 25 25
33 34 34 35 35 34 32 31 31 31 31 30 29 28 27 27 27 27 28 27 26 26 27 27 28 28 28 28 28 27 26 26 26 26 25 25 25 26 26 26 25 25 26 27
32 32 33 33 33 32 32 31 31 30 30 30 29 29 29 29 28 27 26 26 26 26 26 27 28 28 28 28 28 27 27 26 26 26 27 26 26 27 26 26 26 26 27 27
30 31 32 33 31 31 31 30 30 29 29 29 29 29 29 28 27 26 26 26 26 26 26 27 26 27 27 27 27 26 26 27 26 26 27 27 28 26 26 26 26 26 27 27

GEFSCGP_500_meanwind_138.txt.gz
Wind_Speed
15 15 13 11 11 10 10 10 10 11 12 14 13 12 14 15 16 18 19 19 18 18 18 17 16 15 14 11 8 6 5 5 6 8 8 10 10 10 11 12 12 13 12 11
17 15 14 14 14 14 13 12 11 12 13 15 13 12 14 17 15 17 19 18 18 18 16 15 15 14 12 10 8 6 3 4 5 7 8 10 11 10 11 11 12 13 12 12
18 15 17 17 16 15 14 14 12 12 13 14 13 13 15 19 16 16 18 17 18 18 16 15 15 14 11 9 7 5 3 3 5 6 8 9 10 10 10 11 12 12 12 13
19 18 20 18 17 16 15 14 14 14 15 13 12 13 16 18 17 15 16 18 18 17 16 15 13 11 9 8 6 5 4 3 4 5 6 8 9 10 11 10 11 11 12 13
20 20 21 20 18 17 16 14 15 16 15 13 11 12 15 17 17 15 16 18 17 16 16 14 11 9 8 7 6 5 3 3 3 3 5 8 9 10 10 10 11 12 13 13
21 21 21 20 19 19 17 16 16 14 13 13 12 12 14 16 17 17 18 17 17 16 14 11 9 8 8 6 5 5 4 3 2 3 4 6 8 9 10 10 11 12 12 13
22 22 22 21 20 19 18 16 14 13 12 13 11 11 15 17 18 18 18 17 15 15 12 9 8 8 7 7 6 4 4 3 2 3 5 6 7 8 9 10 11 12 12 13
21 21 21 21 20 18 18 16 14 12 13 13 11 10 16 17 19 18 17 16 15 13 10 8 7 7 7 7 6 4 4 4 3 3 4 5 6 6 7 9 10 12 12 12
17 17 18 21 20 20 18 18 15 15 14 13 10 11 17 18 18 18 16 14 14 11 9 7 7 7 7 7 5 4 4 3 3 3 4 5 5 5 6 8 9 11 12 13
20 17 17 20 20 19 19 17 17 18 17 15 14 16 18 19 14 16 15 14 13 11 9 8 8 7 7 5 4 4 4 4 4 4 4 5 6 6 7 8 10 11 12 13
24 22 18 20 21 18 19 20 19 18 17 15 16 18 19 15 13 15 15 14 13 11 10 9 8 7 7 6 4 4 4 4 4 5 5 5 6 7 8 9 10 12 13 13
26 24 22 21 20 19 19 19 20 20 20 19 18 19 16 15 15 15 15 14 14 11 10 9 8 7 7 7 6 6 5 5 5 6 7 7 7 8 9 10 11 12 14 14
27 28 26 22 19 19 19 19 20 20 19 18 18 21 18 18 16 15 16 16 15 13 12 11 10 9 9 9 8 8 7 7 7 8 8 9 10 10 11 11 11 11 13 14
30 30 28 23 20 18 18 18 19 20 20 19 20 22 20 19 18 17 16 16 16 15 14 13 12 12 11 11 11 10 10 9 9 9 10 11 11 11 11 11 11 12 13 14
31 30 29 27 22 18 17 17 19 21 21 21 21 23 23 23 22 19 17 17 17 16 15 15 14 13 13 13 12 12 11 11 11 11 12 12 12 12 12 12 13 13 14 15
31 31 29 29 27 21 19 19 18 20 21 22 22 25 24 24 21 20 19 18 17 18 17 16 15 15 14 14 14 13 13 13 12 13 13 13 13 13 13 13 13 14 14 15
30 31 32 29 28 24 24 22 20 20 21 22 24 26 23 24 25 22 22 21 20 20 20 19 17 16 16 16 15 15 15 15 14 14 14 14 14 14 14 14 15 15 16 17
33 33 33 31 27 27 24 23 23 23 23 23 26 27 26 26 26 25 24 23 23 22 22 21 19 18 18 18 17 17 17 17 17 17 17 16 16 15 16 15 16 17 18 18
34 34 34 32 29 29 26 25 25 26 27 28 30 30 29 28 28 28 27 25 23 23 23 22 22 21 20 20 20 20 20 20 19 19 19 18 17 17 17 17 18 19 19 19
36 36 35 34 31 28 28 29 28 27 29 31 32 32 32 31 31 30 28 26 25 24 23 23 24 23 23 23 22 21 21 21 21 21 20 20 19 19 19 19 19 20 21 21
38 37 36 35 33 31 31 31 31 32 34 34 33 33 32 32 32 31 29 28 27 26 25 25 25 25 25 25 24 23 22 23 23 22 22 22 21 21 21 22 22 21 22 22
36 37 38 37 35 35 34 32 33 34 33 34 32 32 32 33 32 31 30 29 28 27 27 26 26 25 26 26 26 25 25 25 25 25 25 24 24 24 23 23 23 23 23 23
34 35 36 38 40 40 38 38 37 36 35 35 34 33 33 33 31 31 31 29 28 28 27 27 27 26 26 26 26 26 26 26 26 26 27 27 26 25 25 25 25 25 25 26
38 38 38 39 39 41 42 40 38 37 36 35 35 34 34 34 32 32 31 31 30 29 28 28 28 28 27 27 27 26 27 27 27 27 27 27 28 27 27 26 26 27 27 27
38 37 38 39 41 41 41 40 38 37 37 37 36 36 35 34 34 33 32 31 30 30 29 29 28 27 27 27 27 27 27 28 28 28 28 28 28 28 27 27 27 28 28 28
37 37 39 41 40 39 39 38 37 35 35 35 35 34 34 34 34 33 32 31 31 30 30 29 28 27 26 27 28 28 28 28 28 28 27 27 26 27 27 27 28 28 28 28

GEFSCGP_500_meanwind_144.txt.gz
Wind_Speed
16 14 12 12 12 12 11 8 6 6 7 9 10 12 15 15 16 18 19 20 17 18 18 17 16 15 13 10 7 6 3 3 3 3 4 6 8 9 11 11 12 12 12 12
17 15 15 15 14 13 12 10 8 6 8 11 12 14 15 15 15 17 18 18 17 18 18 17 15 14 12 10 7 4 2 2 2 3 4 5 7 8 9 11 11 12 12 12
17 16 17 16 16 14 13 12 10 10 11 13 15 15 15 14 15 14 15 17 18 18 17 16 15 13 11 9 7 4 1 1 2 4 4 5 6 8 9 10 11 12 12 12
19 19 18 17 16 14 13 12 13 13 14 15 16 16 14 15 15 14 15 16 17 17 17 15 14 12 9 8 5 2 0 1 2 4 4 6 6 8 9 10 12 12 13 12
18 19 19 17 15 15 14 14 15 15 16 15 15 16 14 15 15 14 15 15 16 16 16 14 12 9 7 6 4 3 1 1 2 3 5 6 7 8 9 10 11 12 12 12
19 20 19 17 16 15 15 16 17 17 16 14 14 15 14 16 15 14 13 14 15 15 14 13 10 8 6 5 4 3 2 1 2 3 4 5 7 8 9 10 11 12 12 12
21 20 19 18 17 16 16 17 17 17 15 12 13 15 14 15 13 13 12 13 15 14 12 11 9 8 6 4 3 3 1 0 1 2 3 5 5 7 8 10 12 12 12 13
23 21 19 18 16 16 16 17 17 16 14 13 13 13 13 13 12 11 11 12 14 13 10 9 9 7 6 4 3 2 1 1 1 2 3 4 5 6 8 10 11 12 12 12
23 21 20 19 17 17 16 16 17 17 16 15 14 14 12 11 11 10 10 12 13 11 10 10 8 6 5 4 3 3 2 2 2 2 2 3 4 5 7 9 10 11 11 12
23 22 21 21 20 18 16 16 18 19 18 16 15 13 12 12 13 11 12 11 10 10 10 10 8 7 6 4 3 4 3 3 2 2 3 3 4 4 6 7 8 10 11 12
24 23 22 23 21 18 17 16 18 20 20 18 17 15 15 15 14 13 14 12 10 9 9 9 8 6 5 5 4 4 4 3 2 3 3 4 4 5 6 6 7 8 10 12
23 24 23 22 20 19 19 17 17 20 20 20 21 18 17 16 15 14 13 12 11 9 9 9 8 7 6 6 5 5 5 4 3 4 4 4 5 6 6 7 8 9 10 11
23 26 25 24 24 23 21 19 18 18 20 22 23 21 19 18 16 14 14 13 12 10 10 9 8 7 7 6 6 5 5 5 4 5 5 5 6 6 7 8 9 10 11 11
25 27 27 26 24 24 23 20 19 20 20 21 21 21 21 20 18 16 15 14 14 11 10 10 8 8 8 7 6 6 6 6 6 7 7 7 7 7 8 8 10 10 11 12
29 29 28 28 28 27 26 24 22 22 21 21 21 21 21 21 20 18 17 16 15 13 12 12 11 10 10 9 9 8 8 8 8 8 8 8 9 9 9 10 10 10 12 13
32 31 30 30 30 30 30 28 26 24 23 22 23 23 22 22 22 19 18 18 17 14 14 13 12 11 11 10 10 10 10 10 10 10 10 10 10 10 10 11 11 11 12 13
36 34 32 32 33 32 32 29 29 28 25 25 24 23 23 24 22 21 21 20 19 16 15 14 13 13 11 11 11 11 11 11 12 12 12 12 12 12 12 12 11 12 13 14
39 37 35 33 33 36 32 31 31 30 28 27 26 24 24 23 23 23 23 22 19 18 16 16 14 14 14 13 13 13 14 14 13 14 14 14 14 14 14 14 13 13 13 14
41 39 37 35 36 36 33 33 32 31 31 30 29 26 25 25 25 24 24 23 22 21 19 18 17 17 15 15 15 15 15 15 15 15 16 15 15 15 16 15 15 15 15 16
43 41 39 38 37 37 34 33 35 35 34 31 30 28 28 28 27 26 25 24 23 22 21 19 19 18 17 16 17 18 17 17 17 17 17 18 17 17 17 17 18 17 17 18
46 43 41 39 38 37 33 34 35 36 35 33 32 30 29 29 28 27 27 26 26 24 23 22 21 20 19 18 19 19 19 19 19 19 20 20 19 19 19 19 19 19 19 19
45 45 43 41 40 37 34 34 35 35 34 33 32 31 30 30 30 29 27 27 27 26 24 24 22 22 21 21 21 21 21 21 21 21 21 21 21 21 21 21 21 21 21 21
44 45 44 42 40 37 35 35 36 36 36 35 34 33 31 31 30 29 28 28 27 26 25 24 23 23 23 23 22 22 22 23 23 22 22 22 22 23 23 23 22 23 23 23
42 43 42 41 41 39 37 36 36 37 37 36 37 36 34 32 31 31 31 29 29 29 27 26 25 25 24 24 24 24 25 24 24 24 23 23 23 24 24 23 23 23 24 25
41 41 41 40 39 37 36 36 36 36 37 37 37 36 36 35 34 32 30 29 28 28 27 26 26 26 26 25 25 26 26 26 25 25 25 24 24 24 24 24 23 23 23 24
40 40 40 39 36 35 35 35 35 36 37 38 37 37 36 35 34 33 31 31 31 29 28 27 27 27 26 26 26 26 26 26 25 25 24 25 24 24 23 23 23 23 24 24

GEFSCGP_500_meanwind_150.txt.gz
Wind_Speed
16 15 14 14 14 13 11 11 11 12 13 11 10 9 9 10 12 13 13 14 15 15 15 15 14 14 13 12 10 6 3 2 3 4 5 6 7 7 9 10 10 10 10 9
18 17 17 17 15 14 13 13 13 14 15 13 12 11 10 11 12 12 13 14 15 15 15 14 14 13 13 11 9 5 2 3 3 3 4 5 6 7 8 9 10 10 9 9
20 20 20 18 17 15 14 15 15 16 16 15 15 12 11 11 12 12 13 14 14 15 15 14 13 13 12 10 7 4 2 3 4 4 4 5 6 7 8 9 10 11 11 10
23 22 21 20 18 17 16 17 17 17 17 16 16 14 12 12 12 12 13 14 14 14 14 13 12 11 10 8 6 3 1 2 4 5 5 5 6 6 8 8 9 10 11 11
23 23 22 20 19 18 17 18 18 17 17 17 17 16 13 13 13 11 13 13 14 14 14 13 12 11 9 7 5 2 0 1 3 5 5 6 6 7 7 8 9 11 11 11
25 24 22 21 21 19 19 19 18 18 18 18 17 16 14 13 11 11 11 12 13 13 13 12 11 10 7 6 4 2 1 1 2 3 4 5 6 7 8 9 10 10 11 11
26 25 23 22 22 21 20 19 19 19 18 18 17 16 14 12 11 11 11 11 13 12 12 11 10 10 7 4 3 2 1 1 2 3 3 4 6 7 8 10 10 10 11 11
26 25 24 23 22 22 21 20 20 19 19 17 17 16 13 12 11 11 11 11 11 11 10 10 9 9 7 5 3 2 1 0 1 2 3 3 5 6 7 9 10 11 12 12
27 26 25 24 23 23 22 21 20 20 19 17 16 14 13 12 10 10 10 11 11 10 10 9 8 7 6 5 3 2 1 1 1 1 2 3 3 5 6 8 9 10 11 12
28 27 26 25 25 24 23 22 21 20 19 17 16 14 11 11 11 10 10 10 10 10 10 9 7 7 6 5 4 3 2 3 3 3 4 4 5 5 6 8 9 10 11 12
28 28 28 27 26 25 24 23 22 21 20 18 16 13 11 11 11 10 10 10 10 10 9 9 8 7 6 5 4 4 4 4 5 5 5 5 6 6 7 8 9 10 11 12
29 29 28 28 28 27 25 23 22 20 18 17 16 13 12 12 12 11 10 10 10 9 9 9 9 7 6 5 5 5 5 6 6 6 6 6 6 7 7 7 8 9 10 12
30 30 28 28 28 27 25 23 22 21 20 18 17 14 13 13 12 11 10 10 9 9 10 10 11 9 7 6 6 6 7 7 7 7 7 7 8 8 8 8 9 10 11 12
30 29 28 27 25 26 25 24 23 22 21 19 17 15 14 14 13 13 13 12 10 10 11 10 10 10 9 8 7 7 8 7 8 8 7 8 8 9 9 10 10 10 11 12
29 28 27 27 26 27 26 25 24 23 22 21 19 17 15 15 15 14 14 14 12 11 11 11 11 11 10 9 9 8 9 9 9 8 8 9 9 10 10 11 11 12 12 13
29 28 27 27 27 27 27 26 25 24 24 23 21 20 17 17 17 16 15 14 13 12 12 12 12 12 12 11 10 10 10 11 11 11 10 10 11 11 11 12 13 14 14 15
30 29 27 27 27 28 29 28 27 25 24 24 23 21 20 19 18 17 16 15 14 13 13 14 13 12 11 11 10 10 11 11 12 12 12 12 12 12 13 14 15 16 16 16
33 32 30 29 28 30 28 28 28 27 26 25 24 23 22 20 19 18 17 17 16 16 15 14 13 12 13 13 12 12 12 13 13 14 13 13 13 14 15 15 16 16 17 17
36 35 33 32 32 31 30 28 28 28 28 27 25 23 23 22 21 20 19 18 18 17 15 15 15 15 14 14 13 13 14 14 14 15 16 15 15 16 16 17 17 17 18 18
39 38 38 37 35 35 32 30 30 29 29 27 26 25 24 24 23 22 21 20 20 18 17 16 16 16 16 16 15 15 16 15 16 17 17 17 17 17 18 18 19 19 19 20
41 41 41 40 39 37 34 32 31 31 29 27 27 26 26 25 24 23 23 22 21 20 19 18 18 18 18 17 17 17 17 17 17 18 18 18 19 19 20 20 20 20 21 22
42 42 42 42 41 40 36 34 32 31 29 28 27 26 26 25 25 25 25 24 22 21 21 21 21 21 20 19 20 19 18 19 19 20 20 21 21 22 22 22 22 22 23 23
44 44 44 43 42 40 38 37 35 33 31 30 28 27 27 27 27 28 27 26 25 24 24 24 24 24 23 23 22 22 21 21 21 22 22 23 23 24 24 24 23 23 23 24
42 43 43 43 43 42 40 39 37 35 33 31 30 29 28 28 28 27 27 27 27 26 25 25 25 24 24 24 23 22 22 22 23 24 24 24 24 25 25 24 24 24 25 26
41 41 41 41 42 41 40 39 37 36 34 33 31 31 31 30 29 29 28 28 27 28 28 27 26 25 24 22 22 22 22 23 24 25 25 25 25 25 25 25 25 26 26 27
39 39 40 40 40 40 40 39 38 37 35 34 33 32 32 32 31 31 31 30 29 29 28 28 27 26 25 25 24 23 24 25 25 26 26 26 27 27 27 27 27 27 28 29

GEFSCGP_500_meanwind_156.txt.gz
Wind_Speed
13 12 11 11 10 8 7 6 7 7 6 6 7 8 9 9 10 11 11 12 13 13 14 14 14 14 13 12 10 8 7 6 6 7 7 7 7 7 7 8 9 9 9 8
15 14 13 12 11 10 8 8 8 8 7 7 7 8 9 10 11 11 11 11 12 13 14 14 14 14 13 12 10 9 7 6 6 6 6 7 8 7 8 8 8 9 9 8
16 16 15 13 12 11 10 10 10 9 8 8 8 8 10 11 11 11 11 11 12 13 14 14 14 14 13 11 10 9 6 5 6 6 6 7 8 7 8 8 9 9 9 9
19 18 16 15 14 13 13 12 11 9 9 10 8 7 12 11 11 11 11 11 12 13 14 14 14 13 13 12 10 8 4 4 5 5 6 7 7 7 8 9 8 8 9 10
20 19 18 17 16 15 15 13 12 10 10 10 11 8 10 11 11 12 12 12 12 13 13 14 13 12 11 10 9 7 4 4 5 5 6 7 7 7 7 8 8 8 9 10
22 20 19 18 18 16 15 14 13 12 11 11 11 9 9 11 11 12 12 12 12 13 13 13 13 11 10 9 8 5 2 2 3 4 5 6 6 6 6 7 8 8 8 9
22 21 21 20 19 17 16 14 12 11 11 12 12 10 10 11 11 11 12 11 12 12 13 13 12 11 10 8 7 4 2 2 2 4 5 5 6 6 7 7 7 8 9 9
24 23 22 21 20 19 17 15 13 11 10 12 13 10 11 11 11 11 11 12 12 12 12 11 11 11 9 8 6 4 3 3 3 4 5 5 5 5 6 7 7 9 9 9
25 25 23 22 22 21 19 17 15 15 14 12 12 11 11 10 11 11 11 11 11 10 10 11 11 10 8 7 5 4 4 4 3 4 4 4 4 5 5 6 7 8 10 10
26 26 24 23 23 22 21 19 18 15 13 11 12 11 11 11 10 11 10 10 9 9 9 9 10 9 7 5 4 4 5 4 4 4 4 4 5 5 6 6 7 7 8 10
27 26 26 24 24 23 21 20 19 17 15 11 10 11 12 11 10 10 9 9 9 9 9 9 9 8 7 5 4 5 5 4 4 3 4 5 6 7 7 8 8 9 9 10
27 26 26 25 25 24 22 21 19 18 17 14 11 13 13 12 11 10 10 9 9 9 9 9 9 8 7 6 6 6 5 5 5 5 5 6 7 8 9 10 10 10 10 11
27 27 25 25 25 24 22 21 20 18 18 16 12 13 14 12 11 11 10 10 9 9 9 9 9 8 8 7 7 7 6 6 6 6 7 8 8 9 10 11 11 12 12 12
28 27 25 22 22 23 22 21 20 19 17 16 14 15 15 13 12 12 12 11 10 10 10 10 9 8 8 9 8 8 8 8 8 8 9 9 10 11 12 12 12 13 13 12
27 26 25 25 25 24 22 22 21 20 19 17 16 16 15 14 13 13 12 12 11 11 11 11 10 10 10 10 10 9 9 9 9 10 10 11 11 12 12 12 13 13 13 14
26 26 25 25 25 25 24 23 23 22 20 19 18 17 16 15 15 14 13 13 12 12 12 12 12 12 11 11 11 10 10 10 10 10 11 11 11 12 12 13 13 14 14 15
27 26 25 25 25 25 26 25 24 23 21 20 18 18 17 17 16 15 14 14 13 13 14 14 14 14 13 13 12 11 11 12 12 12 13 12 12 12 13 13 14 14 15 16
28 27 26 25 26 25 25 25 24 23 22 21 21 20 20 19 18 16 15 15 15 15 15 15 15 14 14 14 14 13 14 14 14 14 14 14 14 14 15 15 15 16 16 17
29 28 27 27 26 26 27 25 24 24 24 23 22 21 21 20 19 18 17 17 17 16 16 15 15 15 15 15 15 16 16 16 16 16 15 15 15 15 15 16 17 17 18 18
31 30 29 28 26 24 25 24 23 24 25 24 23 22 22 21 21 20 19 19 19 18 18 17 17 16 16 16 17 17 17 17 18 18 18 18 18 17 18 18 18 19 19 20
33 32 31 30 28 27 28 24 23 25 25 24 24 23 23 23 23 22 22 21 21 21 20 19 19 18 18 18 18 18 19 19 19 19 20 20 19 20 20 20 20 21 22 22
33 33 33 32 31 31 30 26 26 26 26 25 25 25 25 24 23 23 23 23 23 23 22 21 21 20 20 20 20 20 20 20 21 21 21 22 21 21 22 22 23 23 23 24
35 35 34 34 33 33 31 29 27 27 27 27 26 26 26 25 24 24 24 24 24 24 24 24 23 23 23 23 23 22 22 22 23 23 24 24 24 23 24 25 25 25 25 25
36 35 35 35 35 34 33 31 29 29 28 28 28 27 27 26 26 25 25 25 25 25 25 25 25 25 25 24 25 25 25 25 25 26 26 25 25 25 26 27 27 27 26 27
35 35 35 35 35 35 34 33 31 31 31 30 29 29 28 28 27 27 26 26 26 26 26 26 27 27 27 27 26 27 27 27 27 27 27 27 27 27 28 28 28 27 27 28
34 35 35 35 35 35 34 33 33 32 32 31 31 30 30 29 29 29 28 28 28 28 28 28 27 27 28 28 28 29 29 29 28 28 28 28 28 29 29 29 28 29 29 29

GEFSCGP_500_meanwind_162.txt.gz
Wind_Speed
9 9 7 6 7 6 6 7 7 7 10 8 7 8 10 12 13 14 16 16 16 16 16 16 16 17 16 16 16 14 14 11 9 7 6 5 5 4 4 5 6 6 6 7
11 9 9 8 9 9 8 6 6 6 10 8 7 7 10 12 15 15 16 17 16 15 16 15 16 16 17 17 16 15 13 11 9 7 6 5 5 5 4 5 6 6 6 7
13 11 11 11 10 10 8 7 8 8 8 7 8 10 13 13 13 15 15 17 16 16 16 16 16 17 17 17 16 15 12 10 6 6 5 5 4 4 4 5 6 6 6 7
15 14 14 13 11 10 8 8 9 8 7 7 6 10 15 16 15 14 15 16 18 17 16 16 17 17 16 17 16 13 11 8 4 4 5 4 4 5 5 5 6 6 7 7
17 17 15 14 12 12 10 10 10 8 7 7 6 7 13 15 15 15 17 16 18 17 16 16 16 16 16 16 14 11 10 6 4 2 3 4 4 5 5 5 6 7 7 7
18 18 16 15 14 13 12 11 9 7 7 9 6 6 10 14 16 16 18 17 17 17 16 15 15 15 15 15 13 11 9 6 4 3 3 4 4 5 5 5 6 7 7 7
19 18 18 17 15 14 12 10 8 7 9 9 6 8 12 16 17 17 18 17 15 15 15 15 15 15 15 15 13 11 9 6 5 4 3 3 4 5 5 6 7 7 8 8
20 19 19 18 16 15 13 12 9 7 8 9 9 9 13 16 17 16 16 16 15 15 15 14 14 14 14 14 13 11 9 7 5 4 4 4 5 5 5 6 7 7 8 9
15 17 19 19 17 16 15 13 11 12 11 11 12 12 16 18 15 15 15 15 15 15 13 13 13 14 14 13 11 10 8 7 6 6 5 4 4 5 5 5 6 7 7 8
19 17 18 20 19 17 16 15 14 14 14 13 12 13 16 16 15 16 16 15 15 14 13 14 13 13 13 12 10 9 9 8 8 6 5 4 5 5 5 5 6 7 8 8
24 21 18 21 20 17 17 17 16 16 15 12 13 16 16 17 17 17 16 15 14 14 14 14 13 13 13 11 10 10 10 9 9 7 6 6 6 6 6 7 7 8 9 9
26 24 21 21 21 18 18 18 18 18 17 15 14 16 17 16 17 17 16 15 15 14 14 14 14 13 12 11 11 11 11 10 10 9 8 7 7 7 7 8 9 9 10 11
27 27 24 20 19 19 19 18 18 18 17 15 14 18 19 16 16 16 17 16 15 14 14 14 14 13 12 12 12 12 11 11 11 10 9 9 9 9 10 10 10 11 12 13
28 28 26 21 18 17 18 17 18 19 18 17 16 18 21 18 17 18 18 18 16 14 14 14 14 14 13 13 13 12 12 12 12 11 10 10 10 10 11 12 12 13 14 15
30 29 28 25 22 16 16 17 18 20 20 18 17 19 22 20 20 20 18 18 17 16 16 15 14 14 14 14 14 14 14 14 13 12 11 11 12 12 13 13 13 15 15 16
31 30 29 28 25 22 19 18 18 18 19 20 19 21 21 22 22 21 20 19 17 17 17 16 16 15 15 15 15 14 15 14 14 14 13 13 13 13 13 14 14 15 15 15
30 29 29 28 26 25 23 21 19 18 19 20 21 24 24 24 25 22 20 20 19 18 18 18 17 17 17 17 17 16 15 15 15 15 15 15 15 14 14 15 15 16 16 15
30 29 28 26 25 24 22 21 21 21 21 21 23 25 25 26 27 24 22 22 21 20 19 19 18 17 17 17 18 17 17 17 16 17 16 16 15 16 16 17 17 17 17 17
30 30 29 27 25 22 21 22 22 22 24 24 24 26 27 28 26 25 24 23 22 21 20 20 19 19 18 18 19 18 17 18 18 17 18 18 18 18 19 19 19 19 20 20
31 31 30 29 26 22 22 24 23 23 26 28 27 28 28 26 25 25 24 23 22 22 22 21 21 21 20 19 19 19 19 20 20 20 20 20 20 20 21 21 21 22 23 22
32 32 31 30 29 27 27 26 25 26 28 28 28 27 28 27 26 26 25 25 24 24 24 24 24 23 22 22 21 21 21 21 22 21 22 22 22 22 22 23 23 24 24 23
29 30 31 32 31 30 31 29 28 28 28 29 28 27 27 27 27 27 26 26 26 25 25 26 26 25 24 24 24 23 23 23 23 23 23 23 23 24 24 25 25 25 25 26
29 29 30 32 34 35 33 32 30 29 28 27 27 28 28 29 28 27 27 27 27 27 26 26 26 26 26 26 26 25 25 25 25 24 24 25 25 26 27 26 27 27 27 27
32 32 32 32 33 34 33 33 32 31 30 30 30 30 30 30 29 29 29 28 28 28 27 27 27 27 27 27 27 27 26 26 26 26 27 27 28 28 29 28 29 29 29 29
34 34 34 35 34 34 35 35 34 33 32 32 32 32 31 31 31 30 30 29 28 29 29 28 28 28 28 28 27 28 28 28 28 29 29 29 29 29 30 30 30 30 30 30
34 35 36 37 37 36 36 35 34 34 34 34 33 33 32 32 32 31 31 30 30 29 29 29 29 29 29 29 29 29 30 31 31 31 31 31 31 31 32 32 32 32 32 32

GEFSCGP_500_meanwind_168.txt.gz
Wind_Speed
12 11 10 9 9 7 4 3 2 3 6 8 9 10 13 14 15 17 19 19 19 19 19 18 17 17 16 15 14 13 11 9 6 5 3 2 3 4 5 5 5 5 5 5
12 12 11 11 10 7 6 5 5 7 9 9 8 8 11 14 15 16 18 19 19 19 18 17 16 16 16 16 15 14 11 7 4 4 2 3 4 4 5 5 6 6 6 6
13 12 13 12 10 9 9 8 7 8 9 9 9 7 9 11 13 15 17 19 19 18 17 16 15 15 16 16 14 13 11 7 4 3 2 3 4 5 6 6 6 5 6 6
15 15 14 12 10 9 8 9 8 8 8 9 10 9 10 11 12 15 16 18 19 18 18 17 15 16 16 14 12 12 10 6 4 3 2 3 4 5 6 6 5 5 5 6
17 16 15 13 11 10 9 10 9 9 7 7 9 10 10 11 12 14 17 19 19 18 17 17 16 16 15 14 12 11 10 6 5 3 1 2 3 4 5 5 6 6 7 7
18 17 16 14 12 11 11 11 10 9 7 6 8 10 11 12 13 14 16 18 17 17 16 17 16 16 15 13 11 10 9 7 6 4 2 0 2 4 5 5 5 6 6 7
19 18 17 15 14 13 13 12 12 11 8 6 8 10 12 12 12 14 16 16 16 15 15 15 16 15 15 13 10 9 8 7 6 4 3 1 1 3 5 6 6 6 6 7
21 19 18 16 15 13 13 14 13 13 10 9 9 11 12 12 12 15 15 15 14 13 14 15 15 14 14 11 9 8 8 8 7 5 3 2 1 2 3 5 5 6 6 7
21 20 19 18 16 15 14 14 14 14 13 11 11 11 12 13 15 16 15 14 13 13 13 13 13 13 12 10 9 8 8 7 7 5 5 3 2 2 3 4 5 6 6 6
23 21 20 19 18 16 15 15 15 15 15 14 13 13 14 15 16 16 16 15 13 13 13 13 13 12 11 10 8 8 8 8 7 6 6 5 3 3 4 4 4 5 6 6
24 23 22 21 19 16 15 15 16 16 16 16 16 16 16 16 16 16 16 15 14 13 13 13 12 11 10 9 7 8 8 9 8 7 6 5 4 3 3 4 4 5 6 6
25 25 24 22 19 16 15 16 17 17 17 17 18 18 18 18 17 17 17 17 16 14 15 12 11 11 10 9 8 8 9 9 8 7 7 6 5 4 4 4 5 6 7 7
27 27 24 23 21 19 18 17 18 18 18 19 20 19 19 18 18 18 18 17 17 15 14 12 11 11 11 10 9 9 9 9 9 8 7 7 6 5 5 5 6 6 7 8
27 28 26 24 22 21 20 18 17 18 19 20 20 19 19 19 19 19 19 19 19 16 14 14 13 12 11 11 10 10 10 9 9 9 8 7 7 6 6 7 8 8 8 9
29 28 27 25 25 25 23 21 19 18 18 20 21 21 21 20 20 20 20 20 19 18 18 17 15 14 13 12 11 11 11 11 10 10 10 9 9 8 8 8 8 8 9 10
31 30 29 27 26 28 27 26 23 20 19 20 20 21 22 21 21 21 21 22 22 20 19 17 15 14 13 12 11 11 12 11 11 10 10 10 11 10 9 10 9 10 10 11
32 31 30 29 28 29 29 27 26 24 22 21 21 22 23 24 24 23 23 23 22 20 20 18 16 15 14 13 12 12 12 12 11 11 11 11 11 11 11 11 11 12 12 12
33 31 30 29 30 31 29 28 29 28 26 25 25 24 26 26 26 24 24 23 23 22 22 21 18 17 15 14 13 13 13 13 13 13 12 13 13 12 13 13 13 13 13 13
35 33 32 30 30 31 30 31 32 31 30 28 28 27 27 27 26 25 25 24 23 23 23 21 20 19 17 16 16 16 15 15 15 14 14 14 14 14 14 14 15 15 16 16
35 34 32 32 32 32 32 32 32 33 33 32 30 29 27 26 26 26 25 24 24 24 22 21 21 20 19 18 18 18 17 17 16 16 16 16 17 17 18 17 17 18 18 19
35 33 32 31 32 32 32 33 34 34 34 32 31 30 28 26 26 25 26 26 25 24 23 22 22 21 21 20 20 20 20 19 18 18 18 19 19 20 20 20 20 21 21 21
35 34 32 32 33 33 32 32 34 35 33 32 31 30 27 27 26 26 26 26 25 25 25 24 23 22 22 22 21 21 21 21 20 20 20 21 21 21 21 22 22 22 23 23
36 35 34 33 34 33 33 34 34 34 33 31 30 27 27 27 26 26 25 25 25 25 25 25 24 24 24 23 22 22 22 22 22 22 22 22 23 23 23 24 24 24 25 25
36 35 35 34 33 33 32 33 34 34 33 31 30 29 27 26 27 27 26 25 25 26 27 27 27 25 25 24 24 24 23 23 23 24 24 24 25 25 25 26 26 26 26 26
37 35 34 34 32 31 31 31 31 31 31 31 31 29 28 26 27 27 26 26 26 27 28 27 26 26 25 25 25 25 25 25 25 26 26 26 26 26 27 27 27 28 27 27
37 35 34 33 32 31 31 30 30 30 30 30 31 31 30 29 29 28 27 27 27 28 28 28 27 27 27 27 28 28 27 27 27 27 27 27 27 27 27 27 28 28 28 28

GEFSCGP_500_meanwind_174.txt.gz
Wind_Speed
13 12 11 10 10 8 7 5 4 4 5 6 7 8 10 11 12 13 15 16 16 17 18 18 17 17 17 15 13 11 10 7 5 4 4 3 4 5 4 4 5 5 5 5
14 13 13 12 11 9 7 7 6 6 7 7 7 8 9 11 12 12 14 15 16 17 17 18 17 17 17 15 13 11 11 8 6 4 4 3 4 5 5 4 4 5 4 5
15 14 14 13 12 10 9 8 8 8 8 7 8 9 10 10 11 12 14 15 15 16 16 17 17 17 16 15 14 12 10 9 6 4 3 3 3 4 5 5 5 5 5 5
17 16 15 14 13 11 11 10 10 10 9 8 8 8 9 10 12 12 14 15 15 15 15 16 16 17 16 15 14 12 9 8 6 4 2 2 3 4 5 5 5 5 5 5
19 17 16 15 14 13 13 12 11 10 10 9 9 8 9 10 12 12 13 13 14 15 15 15 16 16 15 14 13 11 9 8 7 5 3 2 3 3 5 6 6 6 6 6
20 19 17 16 16 15 15 13 12 12 11 11 10 9 9 9 10 11 12 13 14 15 15 16 15 16 15 14 12 9 8 7 6 5 3 2 3 4 5 6 7 7 7 7
22 20 18 18 18 17 15 14 13 13 12 12 11 10 9 8 9 11 12 13 14 16 16 16 16 16 15 13 11 9 7 6 5 5 5 3 3 3 4 6 7 8 8 9
23 21 20 19 18 17 16 15 15 14 13 12 12 11 9 9 10 11 13 14 15 16 16 16 17 16 15 13 10 9 7 6 5 5 5 4 4 4 5 6 7 8 9 9
25 23 22 21 20 19 17 16 15 16 15 14 13 12 10 10 11 11 13 14 16 16 15 16 17 16 14 12 10 9 7 6 6 6 6 6 6 5 6 6 7 8 9 9
26 25 24 23 22 21 20 18 17 17 17 16 14 13 12 11 11 12 13 14 15 16 16 16 17 16 13 11 9 9 8 7 7 7 7 7 7 6 6 7 7 8 8 9
26 26 25 24 23 21 20 19 19 19 18 17 16 14 13 13 13 13 13 13 14 15 16 16 15 16 13 11 10 9 9 8 8 8 8 8 7 7 7 7 7 7 8 9
27 26 26 25 24 22 21 20 19 19 18 18 17 14 13 13 13 14 14 13 13 15 16 16 15 15 14 12 10 10 9 9 9 9 8 8 8 7 7 7 7 8 8 9
29 28 26 26 25 23 22 20 20 19 19 18 17 14 14 14 14 14 14 14 14 15 15 16 16 16 15 13 11 10 10 10 9 9 8 8 9 8 7 7 7 8 9 9
30 29 27 25 24 24 23 22 21 20 20 19 18 16 15 15 15 15 16 16 15 15 15 16 17 17 16 14 12 11 11 10 10 10 9 9 9 9 8 7 8 8 9 10
31 29 27 26 25 24 24 23 23 22 20 20 18 17 17 18 17 17 17 17 17 17 17 17 17 17 17 14 13 12 12 11 11 10 10 10 10 10 9 8 8 9 10 11
32 30 28 27 26 25 25 24 24 23 22 20 19 18 17 18 18 17 18 17 17 17 18 18 18 18 17 15 13 13 13 12 12 11 11 11 10 10 10 10 10 11 11 12
32 31 29 28 27 27 27 25 25 25 23 22 20 18 18 18 18 18 18 19 18 18 19 19 19 19 17 15 15 15 14 14 13 13 12 12 12 11 11 12 12 12 13 13
31 30 29 29 28 29 27 26 25 25 25 24 23 21 20 20 20 20 20 20 20 19 20 21 20 19 18 17 16 16 16 15 15 14 14 14 14 14 14 14 14 14 14 14
31 30 30 30 30 29 28 27 26 26 26 25 25 24 23 23 22 22 22 23 22 21 21 20 20 20 19 19 18 18 17 16 16 16 16 16 17 16 16 16 16 16 16 16
32 31 31 31 31 31 29 28 28 27 27 26 26 26 25 25 24 23 23 24 23 21 20 20 20 20 21 21 20 19 18 18 18 17 17 18 17 17 17 18 18 18 19 19
34 34 33 33 33 32 31 30 30 30 29 27 27 26 26 25 25 24 24 24 23 22 22 22 22 22 21 21 21 21 19 20 20 19 18 19 19 19 19 19 20 20 21 21
36 36 35 35 34 34 32 32 31 31 30 29 28 27 27 26 26 26 25 25 24 24 23 24 24 23 22 23 23 22 21 21 21 21 20 20 20 21 20 21 22 23 23 24
39 38 37 37 35 34 33 32 31 31 30 30 29 29 28 28 28 27 26 26 26 25 26 25 25 24 24 24 24 23 22 22 23 22 21 21 22 23 23 23 24 23 24 24
40 39 38 37 36 35 34 33 32 31 30 30 30 29 29 28 27 27 27 27 26 27 26 26 25 25 25 25 25 26 24 23 23 22 22 22 23 24 24 24 25 25 26 26
40 39 38 37 36 34 33 32 31 30 30 30 30 30 29 28 28 28 28 28 28 26 26 26 27 27 26 26 27 26 24 23 22 23 23 24 24 25 26 26 27 27 27 27
39 38 37 36 35 33 32 31 30 30 30 30 30 30 30 30 29 29 29 28 27 27 28 28 29 28 28 27 26 25 25 25 24 24 25 26 26 26 27 28 28 27 28 28

GEFSCGP_500_meanwind_180.txt.gz
Wind_Speed
12 11 10 9 8 6 5 3 1 1 3 5 6 6 8 9 10 11 12 13 14 14 15 15 15 15 13 12 11 11 10 8 7 5 3 1 2 4 4 4 5 5 6 6
14 13 12 10 9 7 5 3 3 2 2 3 5 6 8 9 10 11 11 12 13 13 14 14 15 15 14 13 12 11 11 10 7 5 3 2 2 4 4 4 5 6 6 6
16 15 13 11 10 8 7 5 4 3 2 3 5 6 7 9 10 10 11 12 12 13 14 14 15 15 14 14 13 11 11 10 8 5 3 3 2 3 4 4 5 6 6 6
18 17 14 13 11 9 8 7 5 4 3 4 4 5 7 8 9 10 11 11 12 13 14 14 15 15 14 14 14 11 10 9 8 6 4 3 2 2 3 4 5 6 6 6
19 18 16 14 13 11 10 7 6 5 4 4 4 3 7 8 9 10 11 11 12 13 14 14 15 14 14 14 13 11 9 8 8 7 5 3 1 2 2 3 5 6 7 7
21 19 17 16 14 13 11 9 7 6 5 6 5 3 6 8 9 9 10 11 12 13 14 15 15 14 14 14 12 10 8 8 7 6 5 4 3 3 3 4 5 5 6 7
21 20 19 17 15 14 12 10 8 7 6 7 6 5 6 8 8 9 10 12 12 13 14 15 15 15 15 13 12 9 8 7 7 6 6 5 4 4 4 5 5 6 7 8
22 21 20 18 16 15 13 12 10 8 8 8 8 6 7 8 8 9 10 12 13 13 14 15 15 15 15 13 11 9 7 7 6 6 6 6 5 5 5 6 6 7 7 8
24 23 21 20 18 17 15 14 12 11 9 8 9 9 9 9 9 10 11 12 12 12 13 14 14 15 14 12 10 9 8 8 7 6 6 6 6 6 6 7 7 7 8 9
26 25 23 21 20 19 17 15 14 12 10 9 10 9 9 10 10 11 11 12 12 12 13 14 14 15 14 12 11 10 9 8 8 7 7 7 7 7 7 7 7 8 9 10
28 27 25 24 22 21 19 18 16 13 12 9 9 11 11 11 11 11 11 11 12 12 14 14 15 14 14 13 12 12 11 11 10 8 8 7 7 8 8 8 8 9 10 10
29 28 26 25 24 22 21 19 17 15 14 11 9 12 12 12 12 12 11 12 12 13 14 14 15 15 15 14 13 13 12 12 10 9 9 8 9 9 10 10 10 10 11 11
30 29 27 26 26 24 23 21 18 16 15 13 10 12 13 13 12 12 12 12 12 14 14 15 15 16 16 15 15 14 13 12 11 10 10 9 10 10 11 11 11 11 11 11
30 30 27 24 23 24 24 22 20 17 15 14 13 13 13 13 13 13 13 13 13 14 14 15 16 16 16 16 16 15 14 13 12 11 11 11 11 10 11 11 11 11 11 11
31 30 29 27 27 25 24 23 21 20 18 16 15 14 14 14 14 14 14 13 14 14 15 16 17 17 17 17 17 16 15 14 14 13 12 12 13 12 12 12 12 12 12 12
31 30 29 29 28 26 25 25 23 21 20 19 17 16 16 15 15 15 15 14 15 15 16 17 18 18 18 18 18 17 16 16 15 14 14 13 14 14 13 13 13 13 13 13
31 30 29 28 28 27 27 25 24 22 20 19 18 18 17 17 16 16 16 16 15 16 17 18 18 18 18 18 18 18 17 16 16 16 16 16 15 15 15 15 15 14 14 14
31 30 29 27 29 28 26 25 24 22 21 21 20 19 18 18 18 18 17 17 18 18 18 17 18 18 19 19 19 19 19 19 18 18 18 17 17 17 17 17 17 16 16 16
32 31 30 29 28 28 28 25 24 23 22 22 21 21 20 20 19 20 19 19 20 20 19 20 20 20 21 21 20 20 20 20 20 20 19 19 19 19 19 18 19 19 19 19
33 31 31 30 28 26 27 26 25 24 24 23 22 22 22 21 21 21 21 21 21 21 21 22 22 22 22 22 22 21 21 21 21 21 21 20 20 20 20 21 20 21 21 21
33 32 31 30 29 27 28 26 25 25 25 24 23 23 23 23 24 23 23 23 23 24 24 24 24 23 23 23 23 23 22 23 23 22 21 21 22 22 22 22 21 21 22 22
33 32 31 30 28 28 29 27 27 27 26 25 25 25 25 25 25 24 24 24 24 24 24 25 25 24 24 24 24 24 24 24 24 23 23 22 22 23 23 23 23 22 22 22
35 34 32 32 31 31 29 28 27 27 27 27 27 27 27 26 26 26 26 26 25 25 26 26 26 26 26 26 26 26 26 25 25 25 24 24 24 24 24 24 24 23 23 23
35 34 34 33 33 32 30 29 28 28 28 28 28 28 27 27 27 27 27 28 28 27 27 27 27 28 28 28 27 27 26 26 26 26 26 26 26 25 25 25 25 25 24 24
35 34 34 34 33 32 32 30 29 29 29 29 29 29 29 28 28 28 28 28 28 28 28 29 29 29 29 28 27 28 27 28 27 27 27 26 26 25 25 25 26 26 25 25
36 36 35 34 33 32 32 31 31 30 30 30 30 30 30 30 29 29 28 28 28 28 28 29 29 30 29 29 29 29 29 29 29 29 29 28 26 26 27 27 27 27 27 27

GEFSCGP_500_meanwind_186.txt.gz
Wind_Speed
11 10 8 7 6 5 5 4 4 4 4 4 5 7 10 14 15 16 16 17 17 18 18 18 18 18 17 16 15 15 14 12 10 8 5 3 2 3 4 3 4 4 4 5
11 9 10 10 8 7 7 5 5 6 5 4 7 7 8 12 14 16 16 17 17 16 17 17 18 17 18 17 16 15 14 13 11 8 6 4 2 3 3 4 4 4 5 5
12 11 12 11 9 8 8 7 7 6 6 4 9 10 10 12 13 15 17 17 17 17 17 18 18 18 18 18 17 16 15 13 11 9 7 6 4 3 3 4 4 5 5 6
15 15 13 13 11 9 7 8 7 6 5 5 7 11 11 11 13 15 15 16 16 17 17 18 18 18 18 18 17 16 15 13 11 9 7 6 5 4 4 4 4 4 5 5
16 16 15 13 12 11 10 9 7 6 5 5 6 9 11 11 12 13 14 15 17 17 17 18 18 18 18 17 17 16 15 13 12 9 8 7 6 5 5 5 5 6 6 6
18 17 16 15 13 12 11 9 6 5 5 8 8 9 10 11 12 13 14 15 16 16 17 18 18 18 17 17 16 16 15 13 12 10 9 8 7 6 5 5 5 6 7 7
19 18 17 16 14 14 12 9 5 6 8 10 10 10 12 13 14 14 14 15 15 16 17 18 18 18 18 17 17 16 15 14 12 10 10 8 9 7 6 6 6 6 7 7
18 18 18 17 16 15 13 11 8 8 9 9 9 11 12 12 14 15 14 14 15 16 17 17 17 18 18 18 17 16 15 14 13 12 11 10 10 8 7 7 7 7 8 8
16 16 18 18 17 15 14 13 11 11 11 10 11 14 14 12 12 13 13 14 14 15 15 16 17 18 18 18 18 18 16 15 14 13 12 12 11 8 7 7 8 7 8 9
20 17 17 18 18 18 16 14 13 12 11 10 11 14 15 12 11 13 14 14 14 15 15 16 17 18 18 18 18 18 17 16 15 14 13 12 10 9 8 8 8 8 9 10
25 21 18 20 20 18 18 16 15 14 12 11 13 16 16 15 13 14 15 14 14 14 15 16 16 18 18 19 19 19 18 17 16 15 14 12 10 9 9 9 10 10 11 11
26 24 22 21 20 19 19 18 17 16 15 14 14 18 14 14 15 15 15 15 15 15 15 16 17 18 18 19 20 19 18 18 17 16 15 14 12 11 11 11 11 12 12 12
28 27 24 21 20 20 20 19 18 18 16 15 13 18 17 17 16 16 16 16 15 15 15 15 17 18 18 19 19 19 19 18 18 17 17 15 14 13 12 12 13 13 13 13
30 30 28 23 19 19 20 20 19 18 17 15 15 18 17 16 16 17 17 16 16 16 16 17 18 19 19 19 19 19 20 19 19 18 18 17 16 15 14 13 13 14 15 15
31 31 31 28 21 19 19 19 20 21 19 17 16 18 20 20 21 20 19 18 18 17 17 17 18 18 19 19 20 20 20 19 19 19 18 18 17 16 16 15 15 15 16 16
33 32 31 30 26 21 21 20 21 21 21 19 18 18 20 21 21 22 20 19 19 18 18 17 18 19 19 20 20 20 20 20 20 20 20 19 19 18 17 17 17 17 18 18
33 32 32 30 27 24 24 23 21 21 21 21 22 21 22 24 24 22 20 20 19 19 19 18 19 19 20 21 21 21 21 21 21 22 21 20 20 20 19 18 18 19 19 20
32 32 32 29 28 29 26 23 23 22 22 23 24 25 26 27 26 24 22 21 20 20 20 20 20 20 21 22 22 22 23 23 22 22 22 22 21 21 21 21 20 20 20 21
32 32 32 30 28 28 27 26 25 24 25 25 25 26 26 27 27 26 23 22 22 22 22 22 22 23 23 23 24 24 24 24 24 24 24 23 23 23 22 23 22 21 21 22
32 33 33 32 29 28 28 26 24 24 28 28 28 28 28 28 27 26 24 23 23 23 23 24 24 25 25 24 25 26 26 25 25 25 25 25 25 24 24 24 23 23 22 23
32 33 34 33 31 29 27 26 25 27 29 29 28 27 26 27 27 26 24 24 24 24 25 25 26 26 27 26 26 27 27 27 27 27 27 27 26 26 25 25 24 24 25 25
32 33 34 33 31 31 30 27 27 28 29 28 28 28 28 28 26 26 26 26 26 27 26 26 26 27 27 27 27 27 27 28 29 29 28 28 27 27 27 26 26 26 26 25
32 32 32 34 35 34 32 31 31 31 30 29 29 30 29 28 28 28 27 27 28 28 28 27 27 27 27 28 28 29 29 30 30 29 29 28 28 28 27 27 27 27 27 26
33 33 34 35 35 35 35 34 33 32 31 30 29 29 29 29 28 28 29 29 29 29 29 28 28 28 29 29 30 29 30 30 30 29 29 29 28 28 28 28 28 28 27 27
34 34 37 37 37 35 36 35 33 31 32 32 30 29 30 30 29 30 30 30 30 30 30 30 30 30 30 30 30 30 31 31 30 29 29 29 29 29 30 29 29 29 28 28
34 35 36 38 38 37 35 34 35 34 33 33 33 32 32 32 32 32 32 31 31 32 31 31 31 31 30 30 30 31 31 30 30 30 30 30 30 30 30 29 30 30 30 30

GEFSCGP_500_meanwind_192.txt.gz
Wind_Speed
17 15 13 11 11 9 6 3 1 0 4 8 11 11 12 14 15 17 18 18 19 20 20 19 18 18 17 17 16 14 14 12 11 9 6 5 3 1 1 2 2 2 2 2
18 16 14 13 12 10 8 5 3 2 4 8 10 10 10 13 13 14 16 17 18 19 19 19 18 17 17 17 16 15 14 13 11 10 8 5 4 2 2 3 3 3 3 3
19 17 16 14 13 12 9 7 6 5 5 8 10 10 10 13 14 13 15 17 17 18 18 18 17 16 16 16 16 15 13 12 11 10 8 7 5 4 2 2 3 3 4 4
19 18 17 15 14 12 10 8 8 7 7 8 8 9 10 12 12 13 14 15 16 17 17 17 17 16 15 16 15 15 13 13 12 10 9 7 6 5 3 3 4 4 4 5
20 19 18 16 15 13 11 10 10 9 8 8 8 9 9 11 12 13 15 15 15 17 16 16 16 16 15 15 15 14 13 13 12 11 10 8 7 6 4 4 4 4 4 5
21 20 18 16 15 14 13 13 12 11 10 9 9 10 10 11 12 13 14 15 15 16 15 14 15 15 15 15 15 14 13 13 12 11 10 8 7 6 5 4 4 4 5 6
22 21 18 17 15 15 15 15 14 12 10 8 9 11 11 10 11 11 13 14 14 15 14 14 14 16 16 15 15 14 14 13 13 12 10 9 8 6 6 5 5 5 6 8
24 22 20 18 16 15 16 16 15 13 10 9 10 11 10 9 10 10 11 12 13 14 14 15 15 15 15 15 15 15 15 14 13 13 12 10 8 7 6 6 6 6 7 8
25 23 21 19 17 16 17 16 15 14 12 11 11 11 10 9 9 10 10 11 12 12 14 15 14 15 15 15 15 16 15 14 14 13 12 11 9 7 7 7 7 6 7 7
25 23 22 20 19 18 17 17 17 16 14 13 12 11 10 9 9 11 11 11 11 12 13 14 14 15 15 15 15 16 16 15 14 13 13 12 11 10 8 8 8 7 8 8
26 24 23 22 21 19 18 19 20 19 17 16 14 13 11 9 10 11 11 10 10 12 13 14 14 15 15 15 16 16 15 15 15 14 14 14 13 12 10 9 9 9 9 9
27 26 25 24 22 20 20 20 20 19 18 17 16 14 13 11 11 11 11 11 11 12 13 13 14 15 15 15 16 16 16 15 15 15 15 14 13 12 12 11 10 11 12 11
28 28 27 26 24 22 21 20 20 20 19 18 18 16 14 13 12 11 11 12 11 11 13 13 14 14 15 16 15 15 15 16 16 16 15 15 14 14 13 12 12 12 12 12
29 30 29 28 26 24 23 21 21 21 21 20 19 19 17 15 14 13 13 13 12 13 14 14 14 15 16 16 16 16 16 16 16 17 17 16 15 15 14 14 13 13 13 13
31 31 30 29 27 26 25 23 22 22 21 21 20 20 18 16 15 14 15 14 14 15 14 14 15 15 16 17 17 17 17 17 17 18 18 17 17 17 16 15 15 14 14 14
33 34 32 30 29 28 27 25 23 23 22 21 21 21 19 18 17 17 17 16 16 16 15 15 16 16 16 17 17 17 17 17 18 19 19 19 19 18 18 17 16 16 16 16
34 34 34 33 32 30 29 27 26 25 23 23 23 22 22 22 21 20 19 18 18 17 17 16 17 17 17 18 18 18 19 19 19 20 20 20 20 20 19 19 18 18 18 17
35 35 35 34 34 35 31 28 28 28 26 25 25 25 24 23 23 23 22 20 19 18 18 18 19 19 19 20 20 21 21 21 21 20 21 20 21 21 21 20 20 20 19 19
35 35 35 35 36 36 33 30 29 29 28 27 27 27 26 25 25 25 23 21 22 21 20 21 21 20 20 21 21 22 23 23 23 22 22 22 22 22 22 22 21 20 20 20
35 35 36 36 36 37 33 32 31 31 30 29 29 29 28 27 28 26 25 23 23 22 22 22 22 22 21 21 22 23 24 24 24 24 24 24 24 24 24 23 22 22 22 22
35 35 36 36 36 37 35 34 33 34 32 30 30 29 28 28 28 27 27 25 25 24 23 23 24 23 23 23 24 25 25 25 26 26 26 26 25 26 25 24 24 23 23 23
36 36 36 36 36 36 35 35 35 34 32 32 31 30 28 28 29 29 28 27 26 25 24 24 25 24 25 25 25 26 26 27 27 27 27 26 26 26 25 25 25 24 24 24
37 36 37 38 38 36 36 37 36 35 33 32 31 30 29 29 29 29 29 28 26 26 26 26 26 26 26 26 27 27 27 27 27 27 26 26 26 26 25 25 25 25 24 24
37 37 38 38 38 37 37 36 36 35 34 32 31 30 30 29 28 29 29 27 27 26 26 26 27 27 28 27 28 28 28 28 27 27 27 26 27 26 26 26 26 26 26 26
39 38 38 38 37 38 36 35 34 35 35 34 33 32 31 30 30 29 27 27 27 26 26 27 27 28 29 29 28 29 29 29 28 28 28 28 27 27 27 26 26 27 27 27
39 39 39 38 36 36 34 34 34 34 34 33 32 32 32 31 32 31 31 30 29 28 28 28 28 28 29 29 29 30 30 29 29 28 28 28 27 27 27 27 27 28 28 28

GEFSCGP_500_meanwind_198.txt.gz
Wind_Speed
16 15 14 13 11 8 6 4 2 1 4 6 7 9 11 13 14 15 15 16 17 18 18 17 17 16 15 15 14 12 11 10 9 7 6 4 3 1 1 1 2 3 3 3
18 17 16 15 13 11 9 7 4 2 3 4 6 7 10 12 13 14 15 15 16 17 18 17 17 16 15 15 14 13 12 10 9 8 7 5 3 2 2 2 3 4 4 4
20 18 17 16 15 13 11 10 8 6 5 6 7 7 9 11 12 13 14 14 15 15 17 16 16 15 15 14 14 14 13 11 10 8 7 6 5 3 2 2 3 4 4 5
22 21 19 17 16 15 14 12 11 9 8 7 8 7 8 10 11 12 13 13 13 14 15 16 15 15 14 14 14 13 13 12 10 9 8 7 5 5 3 3 3 3 4 5
23 22 21 19 17 16 15 14 13 12 11 9 9 8 8 9 10 10 11 11 12 13 14 15 14 14 14 14 14 13 13 12 11 10 9 8 7 6 5 5 4 5 5 6
24 23 22 20 19 18 16 15 15 14 13 11 10 10 9 8 9 9 10 11 12 13 14 14 13 13 14 14 14 14 14 13 12 12 11 9 7 7 6 6 6 6 6 7
25 24 23 21 21 20 18 16 16 15 14 13 11 11 10 8 9 9 10 10 11 12 13 13 13 13 14 14 14 14 14 14 13 12 12 11 9 8 7 7 7 7 7 8
27 26 24 23 22 20 19 18 17 17 16 15 13 13 11 9 10 10 9 9 10 10 11 11 12 12 13 13 14 15 14 14 13 13 12 12 11 9 8 7 7 8 8 9
28 27 25 24 23 22 21 20 19 18 18 17 15 13 12 11 11 10 9 9 9 9 10 11 11 11 12 13 14 14 15 14 14 13 13 12 12 10 9 8 8 8 8 9
29 28 26 25 24 24 22 22 21 20 19 17 16 14 13 12 10 10 9 8 8 9 10 11 11 11 12 13 13 14 14 14 14 14 13 13 13 12 10 10 9 9 10 10
30 29 28 27 26 24 23 23 22 22 21 19 18 15 13 12 10 9 9 8 9 10 11 11 11 11 12 13 13 14 15 14 14 14 14 14 14 13 11 11 11 11 11 11
30 29 28 28 27 26 25 24 24 24 22 20 19 17 14 13 12 12 11 11 11 11 12 12 12 12 13 13 13 14 15 14 14 15 15 15 15 14 14 12 12 12 12 12
30 30 29 28 28 27 27 26 25 25 24 23 21 19 17 15 14 13 13 13 12 11 12 12 12 12 13 13 13 14 15 14 15 15 16 15 15 15 15 15 14 13 13 14
30 30 29 28 27 26 27 26 26 25 25 24 22 20 18 17 15 15 15 14 13 12 11 12 13 13 14 14 15 16 15 15 16 16 16 16 17 17 17 17 16 15 15 15
30 31 30 28 28 27 27 27 26 26 25 24 22 21 19 18 17 16 15 15 14 14 13 13 14 15 15 15 16 16 16 16 17 17 17 18 18 19 19 19 18 18 17 17
32 32 32 30 29 29 29 28 27 27 26 25 24 22 21 20 19 17 15 15 15 14 14 15 15 16 16 16 16 17 17 18 18 18 19 20 20 21 20 21 20 19 19 18
33 33 33 32 31 32 32 30 29 29 27 26 25 23 21 20 19 19 17 17 16 15 15 16 17 17 17 17 17 18 19 19 20 20 21 21 22 22 22 23 21 20 20 19
34 33 32 32 31 32 30 30 30 30 29 28 27 25 23 21 20 19 19 18 17 17 18 19 19 19 19 19 19 19 20 20 21 21 21 22 23 23 23 23 22 21 21 21
35 35 34 34 33 32 30 30 31 31 31 30 29 27 26 23 23 22 21 21 20 20 21 20 21 21 20 20 20 20 20 21 22 21 22 23 24 24 24 24 23 22 22 21
35 35 35 35 35 34 32 31 32 32 32 30 30 28 27 25 25 23 23 23 22 22 22 22 22 22 21 21 21 21 21 22 22 23 24 24 25 25 25 25 25 24 23 22
36 36 36 35 35 35 33 32 32 33 32 30 31 30 28 27 26 25 24 24 23 23 24 24 24 23 22 22 22 22 22 23 24 25 25 25 26 26 26 26 25 24 24 23
37 36 36 36 35 35 33 33 32 33 32 32 30 29 28 28 27 26 25 24 24 25 25 25 24 24 24 24 23 23 24 25 26 26 26 26 26 26 26 26 25 25 25 24
38 37 37 37 36 35 33 33 32 32 31 31 30 29 30 30 28 28 28 27 25 25 25 26 26 27 27 26 25 25 25 26 27 27 27 26 26 26 26 26 25 25 24 24
38 38 38 38 37 36 34 33 32 31 31 31 31 31 31 31 31 30 30 29 28 27 27 28 28 28 27 26 25 26 26 27 27 26 26 26 26 27 26 25 25 25 25 25
38 38 39 38 37 36 35 34 33 32 32 33 33 33 32 32 32 31 31 30 29 29 28 28 28 28 29 27 26 26 27 28 27 27 26 27 28 28 27 26 25 25 26 26
38 39 39 38 37 36 34 34 33 31 31 32 33 33 32 32 32 31 30 30 29 29 29 29 28 29 29 29 27 26 27 28 28 28 28 28 29 28 28 27 27 26 27 27

GEFSCGP_500_meanwind_204.txt.gz
Wind_Speed
14 13 12 11 10 8 5 3 2 3 4 5 7 9 10 11 12 14 15 16 16 16 16 16 15 14 12 11 11 10 10 9 8 7 6 5 4 2 1 1 2 2 2 3
15 15 15 13 12 10 8 5 5 4 3 4 5 7 9 9 11 13 14 14 15 15 15 15 14 13 12 12 11 11 11 10 9 8 6 5 4 3 2 2 3 3 3 4
18 17 16 14 13 12 10 8 7 6 5 5 5 8 8 8 10 12 13 13 14 14 13 13 13 12 12 12 11 11 10 10 10 9 7 6 5 4 4 3 3 3 4 4
20 19 17 15 14 12 11 10 9 8 6 6 6 6 8 9 9 10 11 12 13 12 12 12 12 11 11 11 11 11 10 10 10 10 9 7 6 6 5 5 5 5 5 5
22 20 18 17 16 13 13 12 11 9 8 7 7 6 8 9 9 9 10 11 11 11 11 11 11 10 11 11 11 11 11 10 9 9 10 9 8 7 6 6 6 6 6 6
23 22 21 19 18 16 14 12 11 10 9 9 8 6 7 8 8 9 9 10 11 11 11 10 10 10 11 11 11 11 11 11 11 10 11 11 10 9 8 8 8 8 6 7
25 23 22 21 19 18 15 13 10 10 10 10 10 8 7 8 8 8 8 8 10 10 9 9 10 10 10 11 11 11 11 11 11 11 12 12 12 11 10 9 9 8 6 7
25 24 24 22 21 20 18 15 12 11 10 11 12 10 8 8 8 8 7 8 8 9 9 9 9 10 10 11 11 11 10 11 12 12 12 12 11 12 11 10 10 8 7 8
25 25 24 23 22 20 19 18 15 13 12 11 12 11 9 8 8 8 7 7 8 8 8 8 9 10 10 11 11 11 11 11 12 12 12 13 12 12 11 10 10 9 9 9
27 26 26 25 23 22 20 18 17 15 14 13 13 12 10 8 8 8 7 7 7 8 9 9 10 10 11 11 10 10 11 12 12 12 13 13 13 12 12 12 11 10 10 10
28 27 27 27 26 24 23 21 19 17 16 14 12 12 11 9 9 9 9 8 8 8 9 10 10 10 11 10 10 10 11 12 12 12 13 13 13 13 13 13 12 12 12 12
28 27 26 27 26 26 24 23 21 19 18 16 14 13 13 11 10 10 10 10 10 9 10 11 11 11 11 11 10 11 12 12 12 12 13 14 14 14 14 14 14 14 14 14
29 29 27 25 27 27 27 25 23 21 19 18 15 14 15 13 12 12 12 12 11 11 11 11 12 12 11 12 12 12 13 13 13 14 14 14 14 14 15 15 15 16 16 15
30 30 28 25 25 26 27 26 25 23 20 20 18 16 16 15 14 14 13 13 12 12 13 12 12 13 13 13 14 14 14 15 15 15 15 15 15 15 16 16 16 16 16 16
31 31 30 28 27 26 27 26 26 25 23 21 20 19 17 17 15 15 15 14 14 14 14 14 14 15 15 15 16 16 16 16 16 16 16 16 16 17 17 17 16 16 16 17
32 32 31 30 29 28 28 27 27 26 26 24 23 21 19 18 18 17 17 16 16 16 16 16 16 17 16 16 17 17 17 17 17 17 17 17 17 18 18 18 17 17 18 18
33 32 32 30 30 29 29 29 28 27 27 26 25 22 21 20 20 19 18 18 17 17 17 17 17 17 17 17 18 18 18 18 17 18 18 18 18 18 18 18 19 19 19 20
33 33 32 30 31 31 30 29 28 28 27 26 25 24 23 22 21 21 20 20 19 19 18 18 18 18 19 19 19 20 21 21 19 19 19 19 19 19 20 20 20 20 21 21
33 33 32 31 31 31 31 30 29 28 28 27 27 26 25 24 24 23 22 22 21 21 20 20 20 19 19 20 21 22 23 24 23 22 20 20 21 21 22 22 22 22 22 23
33 32 33 33 31 31 32 30 29 29 29 28 27 27 26 26 26 26 24 24 23 22 22 22 22 21 21 22 22 23 23 23 23 21 21 22 22 23 23 24 24 24 24 24
33 33 33 33 32 31 31 31 30 30 29 28 27 27 27 27 27 27 26 25 24 24 24 24 24 24 23 23 24 24 24 24 23 23 23 24 25 25 25 25 25 25 25 24
33 34 34 33 32 32 32 31 31 30 29 28 27 27 27 27 28 27 27 27 26 26 26 26 25 25 25 25 25 25 25 25 25 25 24 25 26 27 27 26 26 25 25 24
33 34 34 34 34 33 32 31 30 30 29 28 28 28 28 28 28 29 28 28 28 27 27 27 27 27 26 26 26 26 25 25 26 26 26 26 26 27 26 26 26 25 25 25
34 34 34 35 34 33 32 31 30 31 30 30 29 29 29 29 30 31 31 30 30 29 29 29 28 27 27 27 26 26 26 26 27 27 27 26 26 26 26 27 27 25 25 26
33 34 35 35 34 33 32 32 32 31 31 31 30 30 30 31 31 31 32 32 31 31 31 31 30 29 27 27 25 26 27 27 28 27 27 26 26 26 26 26 26 26 25 26
33 34 35 34 34 34 33 33 32 32 31 30 31 31 30 30 30 31 31 32 32 32 32 31 29 28 28 27 27 27 28 28 28 27 27 27 27 27 27 27 27 26 26 26

GEFSCGP_500_meanwind_210.txt.gz
Wind_Speed
9 8 8 7 7 7 7 4 2 4 5 5 6 9 12 13 14 15 16 16 17 17 17 17 17 17 16 15 12 12 12 11 11 10 9 8 6 6 5 4 3 4 4 4
11 11 10 9 8 8 7 6 4 4 5 5 6 7 8 11 13 14 14 15 16 16 16 16 16 16 15 14 13 12 11 11 10 10 10 9 8 7 6 6 5 5 5 6
14 13 12 11 10 9 8 8 7 5 6 7 8 10 10 9 10 13 14 14 15 16 15 15 15 15 14 13 13 13 12 11 11 11 11 10 9 8 8 7 7 6 6 7
16 16 15 13 12 10 9 8 9 8 7 6 9 12 11 10 9 11 13 13 14 15 14 14 14 14 13 13 13 13 12 11 11 11 11 11 10 9 8 9 8 8 8 8
18 17 17 16 14 12 11 10 9 8 7 7 9 12 13 11 10 10 11 12 12 14 14 13 13 13 13 13 13 13 12 12 11 11 12 11 10 10 10 10 9 8 9 9
20 18 17 17 14 13 13 11 10 7 8 11 10 10 13 12 10 10 9 9 10 11 12 13 12 12 13 13 13 13 13 13 12 12 13 12 12 11 11 11 11 10 10 10
21 19 18 15 14 14 13 11 9 9 11 14 12 10 12 14 13 11 11 10 9 10 11 11 12 12 12 13 13 13 13 13 13 13 14 13 13 12 12 12 12 11 12 11
18 19 18 17 17 16 15 12 12 12 12 13 12 11 13 12 13 12 12 10 9 10 10 11 11 11 12 12 13 13 14 13 14 14 15 14 13 13 12 13 13 13 13 13
18 17 18 18 17 17 15 15 14 15 15 15 13 14 14 12 11 12 12 10 9 9 9 10 11 12 12 12 12 12 13 13 14 14 15 15 14 14 13 13 13 13 13 13
22 20 18 19 19 18 19 15 15 17 15 15 14 15 15 12 11 12 12 12 10 10 9 10 11 12 12 13 13 13 13 13 14 15 15 15 15 15 15 15 15 14 14 14
26 24 19 20 20 19 19 18 18 17 17 14 16 17 18 11 10 11 13 12 12 10 10 10 11 12 12 13 13 13 13 13 14 15 15 16 16 16 16 16 16 16 16 16
27 25 23 20 20 20 19 19 19 19 17 15 16 19 18 15 14 13 13 13 13 12 12 12 12 13 13 13 13 13 12 13 14 15 15 16 16 17 17 17 17 17 17 17
29 28 26 21 19 21 21 21 20 18 18 17 17 19 21 18 15 15 15 16 15 14 14 14 14 14 14 14 14 14 14 14 15 16 16 16 17 17 18 18 18 18 18 18
30 30 28 22 19 20 20 19 20 20 19 18 19 20 21 20 17 16 16 17 16 15 15 15 15 15 15 15 15 16 17 16 17 17 17 18 18 19 19 20 20 20 19 19
31 30 30 28 23 21 21 20 20 21 22 21 21 22 22 21 21 18 17 17 17 17 17 17 16 16 17 17 16 17 18 18 18 18 18 19 19 20 21 21 22 21 20 20
33 32 31 31 29 25 23 22 21 21 23 23 23 24 25 25 25 21 19 18 18 19 19 19 18 18 18 18 18 19 20 20 20 19 19 20 20 21 22 22 22 22 22 21
32 33 33 31 29 28 29 25 23 23 24 24 25 25 27 27 25 24 23 22 21 21 21 20 20 20 20 20 20 21 21 21 21 21 21 20 20 21 22 22 22 23 23 23
32 33 33 31 29 31 30 28 25 25 26 27 28 27 27 28 28 28 27 25 23 22 23 22 22 22 21 22 22 23 22 22 22 22 23 23 22 22 22 23 23 24 24 24
31 33 32 30 30 30 28 27 27 27 27 29 30 29 29 29 30 29 28 27 25 24 25 24 24 24 23 23 23 24 23 22 23 23 23 23 23 23 23 24 24 24 25 25
31 33 32 32 30 29 29 29 29 29 30 31 29 29 30 30 30 30 28 27 27 26 25 25 25 26 25 25 25 25 24 24 24 25 24 25 25 25 25 25 25 26 26 26
32 33 33 32 31 30 31 30 28 30 32 30 30 30 30 30 31 32 30 29 28 26 26 26 27 27 27 27 27 26 26 25 25 26 26 26 26 26 26 27 26 27 26 26
31 33 34 34 33 32 33 32 31 32 31 31 31 31 31 30 31 32 32 30 29 28 28 28 28 28 28 29 28 28 27 26 27 27 27 27 27 27 28 28 27 27 26 26
32 33 33 34 35 35 34 33 33 34 33 31 31 31 31 31 32 32 32 31 30 30 30 29 29 29 29 29 29 29 28 29 29 29 29 29 28 29 29 28 27 27 27 27
32 33 34 35 35 35 35 34 33 32 31 32 33 32 32 32 32 32 32 32 32 31 31 31 31 31 30 30 30 31 31 30 30 30 30 30 30 30 29 29 28 27 27 27
30 32 33 34 35 35 35 35 34 33 33 33 32 32 32 33 34 34 33 32 32 33 32 33 33 33 32 32 31 31 31 31 31 32 31 31 31 30 30 29 29 29 28 28
27 30 33 35 35 35 34 34 34 34 35 35 35 33 34 35 34 33 32 32 32 32 32 33 34 34 33 33 32 32 32 32 31 31 31 31 30 30 30 30 30 30 29 29

GEFSCGP_500_meanwind_216.txt.gz
Wind_Speed
16 15 12 10 8 6 4 3 3 5 6 5 7 10 11 13 15 16 16 17 17 17 17 17 16 15 15 14 14 13 12 12 11 10 9 8 7 5 4 3 3 3 3 2
17 15 13 12 11 8 6 5 3 4 4 6 7 8 9 10 12 13 14 15 16 16 16 15 15 15 15 14 13 13 12 11 11 10 9 8 7 6 5 5 4 5 4 3
17 16 16 15 13 10 8 6 3 3 4 6 7 7 8 9 11 11 13 13 14 14 14 13 14 14 14 14 13 13 12 11 10 9 9 8 8 7 6 5 5 5 5 4
19 17 17 16 14 12 10 7 5 5 6 8 8 10 8 9 9 10 11 12 12 12 13 12 12 12 13 13 13 13 12 12 11 10 9 9 8 8 7 7 6 6 6 5
20 19 18 17 15 13 13 10 8 7 8 10 10 11 9 8 9 10 10 10 10 11 12 11 10 10 11 12 13 12 12 12 11 10 10 10 9 8 8 8 8 8 7 6
20 20 19 18 16 14 13 12 11 10 10 11 10 12 10 9 8 8 8 9 9 9 10 10 10 10 11 11 11 11 11 11 11 11 10 10 10 9 9 9 9 9 9 8
21 21 20 18 17 15 15 15 14 12 12 12 12 13 12 9 8 9 9 8 7 8 8 8 8 9 10 11 11 11 10 11 11 10 11 10 10 10 10 9 10 10 10 9
22 21 20 18 17 16 15 17 16 15 14 13 13 14 14 11 10 9 8 7 7 7 7 6 7 8 9 10 11 11 11 12 11 11 11 11 11 11 11 11 11 11 10 10
23 21 20 18 17 16 17 17 17 17 16 16 15 14 14 12 12 11 8 7 9 8 7 6 7 8 9 10 10 11 11 11 11 10 10 10 10 11 11 11 12 11 11 11
24 22 20 19 19 18 17 16 17 18 18 19 17 15 14 13 11 10 8 7 8 7 6 7 6 7 9 9 10 11 11 11 10 10 10 10 11 11 11 11 11 12 12 12
25 24 22 21 21 20 20 20 19 19 19 19 18 16 13 11 9 9 8 8 8 7 8 8 7 7 9 10 11 11 11 11 11 11 11 11 12 12 12 11 12 12 13 13
25 25 24 23 23 22 21 21 21 21 20 21 21 18 14 12 11 10 9 9 9 9 8 8 8 8 9 10 11 12 12 12 13 13 14 14 13 13 13 13 13 13 14 14
28 27 26 26 25 25 24 23 23 22 22 22 23 20 16 15 13 12 11 11 12 12 11 8 8 9 9 11 12 13 13 13 14 14 15 15 15 15 16 15 14 14 14 14
30 30 29 28 28 27 26 25 24 23 23 24 24 23 20 19 17 15 14 14 15 15 12 10 9 10 11 12 13 14 14 15 15 15 16 16 16 16 15 15 15 15 15 15
31 30 29 30 30 29 28 27 26 26 25 25 24 24 22 20 19 18 18 17 17 14 13 12 11 12 13 13 14 15 15 16 16 17 17 17 18 17 16 16 16 16 16 16
33 32 30 30 31 31 30 28 28 28 28 26 25 24 23 21 20 20 20 20 19 18 16 16 16 15 14 15 15 16 17 17 18 18 18 18 19 18 17 16 17 18 18 18
34 33 33 32 32 32 32 30 29 28 28 28 27 26 25 23 22 22 23 22 21 20 20 20 19 18 17 17 17 18 18 19 19 19 19 19 19 18 17 17 18 19 19 19
35 35 35 34 33 33 32 30 31 30 30 30 30 28 27 26 24 22 22 22 22 22 21 21 21 21 19 19 19 19 20 21 20 21 21 21 21 20 19 19 19 20 20 20
34 34 35 35 36 35 34 32 33 32 31 30 31 30 30 28 27 25 23 23 24 23 22 22 22 22 22 21 21 21 21 22 22 22 21 21 21 21 20 20 21 20 21 21
35 34 35 35 36 37 35 34 34 34 34 32 31 31 30 29 29 26 25 25 26 26 25 25 25 24 23 22 23 23 23 22 22 21 21 21 21 21 21 21 21 21 22 22
35 35 34 35 36 36 35 35 35 36 35 33 33 33 31 31 28 27 27 27 27 28 27 26 25 24 23 23 24 24 23 23 23 23 23 23 22 22 22 22 22 22 23 24
35 35 34 34 35 35 34 34 35 35 35 34 34 33 32 31 30 30 30 29 28 27 26 26 26 25 24 25 25 24 24 24 24 25 24 24 24 24 24 24 25 25 25 25
35 35 35 35 35 34 33 33 34 35 35 34 33 33 32 31 31 31 31 30 30 29 26 26 27 26 25 25 25 25 25 26 26 26 26 25 26 26 27 26 26 27 26 26
35 35 35 35 35 35 34 34 35 36 36 35 33 33 33 32 32 32 32 31 30 29 27 27 26 26 26 26 26 26 26 27 27 28 27 26 27 27 28 28 28 28 27 26
34 34 34 34 34 34 34 35 36 34 33 33 33 32 32 32 32 33 33 31 30 31 31 29 29 29 29 28 28 28 29 29 29 29 30 28 28 28 29 29 28 28 27 26
34 35 36 35 34 34 33 33 34 34 33 32 33 33 32 33 33 34 34 34 33 33 33 32 30 30 30 30 30 30 30 30 30 30 31 31 29 29 29 28 28 28 28 27

GEFSCGP_500_meanwind_222.txt.gz
Wind_Speed
18 15 13 11 9 8 7 5 4 4 6 7 7 8 9 9 11 12 12 12 13 14 14 15 15 14 13 12 11 11 10 9 8 8 7 6 5 4 4 3 3 4 4 3
19 17 15 14 12 11 10 8 6 5 4 4 6 7 8 9 10 10 10 10 10 11 12 13 13 13 13 12 11 10 9 9 9 8 7 6 5 5 4 4 4 4 5 5
21 18 18 17 15 13 12 10 8 6 5 4 5 6 7 8 9 9 9 9 8 9 9 11 12 12 12 12 11 10 9 9 9 8 7 7 7 7 5 4 4 5 5 5
23 22 21 19 18 16 14 13 11 9 7 6 6 6 6 7 8 8 8 8 7 8 8 8 9 10 11 11 11 10 10 10 10 9 9 8 7 7 6 6 6 6 6 6
24 23 23 22 19 18 16 15 14 13 11 9 8 6 5 6 6 7 7 7 6 7 6 6 7 8 9 9 10 10 10 9 9 9 9 9 8 8 8 7 7 8 8 7
25 24 23 22 21 20 18 17 16 16 15 12 9 8 7 7 6 7 7 6 6 7 6 6 6 6 6 7 8 9 9 9 9 9 9 9 9 9 9 9 9 8 8 8
26 25 23 22 22 21 19 19 17 17 16 13 11 10 8 7 7 7 7 6 6 7 6 6 6 5 6 6 7 8 8 8 9 9 9 9 9 9 9 9 9 9 9 9
26 25 24 23 22 21 20 19 18 17 16 15 14 12 10 9 9 8 8 8 7 7 7 7 7 6 5 6 7 8 8 8 8 8 8 9 10 10 10 10 10 10 10 10
27 25 24 24 23 23 22 21 19 18 18 18 17 14 12 12 10 10 10 10 9 9 8 7 7 7 6 6 7 7 8 9 9 9 9 9 10 10 10 10 10 11 11 11
27 26 25 25 25 24 24 23 21 21 20 19 19 16 14 13 13 12 12 11 10 9 8 8 8 7 6 6 6 7 8 9 10 9 10 10 10 11 11 11 12 12 12 12
27 27 26 26 26 25 25 25 24 23 22 21 19 17 15 14 13 12 11 11 12 10 9 9 9 9 8 7 7 7 8 10 11 10 10 11 11 12 12 13 13 13 13 12
28 28 28 28 27 27 27 26 25 24 23 22 21 19 16 15 14 12 12 11 11 11 11 11 10 10 9 9 8 8 9 10 11 11 11 12 12 13 14 14 14 14 13 12
28 29 29 29 29 28 28 27 26 25 24 23 22 20 17 16 15 13 13 13 12 11 12 13 12 12 11 11 10 10 11 12 12 12 13 13 13 14 14 15 15 15 14 13
29 30 30 30 29 28 28 28 27 26 26 25 23 21 18 17 16 15 15 15 15 14 14 14 14 14 13 13 13 13 13 14 15 14 14 15 15 15 15 16 16 16 15 15
31 31 30 30 29 29 29 28 27 27 27 26 24 23 21 20 19 18 16 16 16 16 16 16 16 16 16 15 15 15 15 16 16 16 16 17 17 17 16 16 16 16 15 15
33 33 32 31 30 30 30 29 29 28 28 27 25 24 23 21 21 19 18 18 18 18 18 17 17 18 19 18 17 17 17 17 17 18 18 19 19 19 17 17 17 16 16 16
34 34 33 33 32 31 32 30 30 29 29 28 28 26 25 24 22 20 19 20 19 19 17 19 19 20 20 20 19 19 19 19 19 20 20 20 21 20 18 18 17 16 16 16
35 35 35 34 33 34 32 31 31 30 29 29 28 27 27 26 25 23 22 22 21 20 21 21 21 22 22 21 21 21 20 21 21 21 22 22 21 20 19 19 18 18 18 18
35 35 36 37 37 36 34 32 31 31 31 31 30 28 27 27 26 26 25 24 24 23 23 23 23 24 24 23 23 23 22 22 22 22 23 22 22 22 21 21 20 20 19 19
35 35 35 36 38 38 36 34 32 32 32 31 31 30 29 29 29 27 27 26 26 25 24 26 25 24 24 24 25 25 24 23 24 23 23 23 23 23 23 22 21 20 21 21
35 36 35 34 35 36 34 34 33 34 33 31 31 31 31 30 29 28 27 26 26 26 25 26 26 26 25 26 26 26 25 25 25 25 25 26 25 23 24 23 22 22 22 22
35 35 35 33 33 33 32 32 32 32 31 31 31 31 31 31 30 29 29 28 27 28 27 27 27 27 27 27 27 27 27 27 27 27 27 27 26 25 25 24 23 23 23 24
34 34 34 33 33 32 32 31 31 31 32 32 32 32 32 32 32 31 31 30 30 29 28 28 28 28 28 28 28 28 28 28 28 27 27 27 27 27 27 25 25 25 25 25
35 35 34 33 33 32 32 32 32 32 32 33 33 33 33 33 33 32 32 32 31 30 29 29 29 29 29 30 30 30 29 28 28 28 27 27 27 27 28 28 27 27 27 27
36 35 35 34 33 33 32 33 33 33 34 34 34 34 33 33 33 33 33 32 32 31 31 31 31 30 31 31 30 30 30 30 30 29 29 29 29 29 30 30 29 29 29 29
34 35 34 33 33 34 33 34 34 34 34 34 34 34 33 33 32 31 31 31 31 31 31 31 31 32 32 32 31 31 31 32 31 31 30 30 31 32 31 30 30 30 30 30

GEFSCGP_500_meanwind_228.txt.gz
Wind_Speed
15 13 11 9 8 7 5 3 2 3 4 5 6 7 8 8 9 10 10 10 11 11 12 12 12 11 10 9 9 8 8 7 6 6 6 6 5 4 3 2 2 2 2 3
17 16 14 12 11 9 7 5 4 4 5 4 4 5 6 7 7 8 9 9 9 9 10 10 11 11 10 9 9 8 8 7 6 6 6 6 6 5 4 3 3 3 3 4
20 17 16 14 12 10 9 7 7 6 6 5 4 4 4 6 7 7 8 8 7 8 9 9 10 10 10 9 9 8 8 7 7 7 6 6 6 6 5 4 5 5 5 4
23 21 19 17 15 13 11 10 8 7 6 6 3 2 5 5 6 6 7 7 6 7 8 8 9 9 8 8 8 8 7 7 6 6 6 6 6 6 6 6 6 6 6 5
24 23 21 19 17 15 14 12 11 9 8 6 6 4 5 5 5 6 6 6 6 6 7 8 8 9 8 8 8 8 7 7 6 6 6 7 7 7 7 7 8 8 7 7
25 25 24 22 20 18 16 14 13 11 9 8 8 6 5 7 6 5 5 5 5 6 7 8 8 8 8 8 8 8 8 7 7 6 7 7 7 8 8 8 8 9 9 9
27 26 25 23 22 20 18 15 12 10 10 10 10 8 7 8 7 6 6 6 5 6 7 7 8 9 9 8 8 8 7 7 7 7 7 8 8 8 8 9 9 10 10 10
26 26 26 25 23 22 20 16 14 11 10 10 12 10 9 9 8 7 7 7 6 6 7 8 8 9 9 9 8 8 7 7 7 8 8 8 9 9 9 9 10 11 11 11
25 25 25 25 24 23 21 19 16 14 12 11 12 11 10 9 9 8 9 8 8 8 8 9 9 9 10 10 9 9 8 8 8 8 9 9 9 10 10 10 11 12 12 12
26 26 25 24 24 24 23 21 18 16 15 13 14 13 12 10 10 10 10 9 9 9 9 9 9 9 10 10 10 9 9 9 9 9 10 10 10 11 11 11 12 13 13 13
26 26 25 26 25 24 25 24 22 19 18 15 14 14 13 13 12 11 11 10 9 10 10 10 10 10 11 11 10 10 9 9 9 10 11 11 11 12 12 13 14 14 14 14
26 25 25 26 26 25 25 24 23 21 20 19 17 16 16 15 14 13 12 11 11 11 12 12 12 12 12 11 11 11 11 11 11 12 12 12 13 13 14 14 15 15 15 15
27 26 25 24 26 27 27 26 25 23 21 20 18 18 18 16 15 14 13 12 12 13 13 13 13 13 12 12 12 12 12 12 13 14 14 14 14 15 15 16 16 16 16 15
29 28 26 24 23 25 27 27 26 25 22 22 22 21 20 18 17 15 15 13 13 13 14 14 13 13 13 13 13 13 13 14 15 15 16 16 16 16 17 17 17 17 17 17
30 30 29 28 27 26 26 27 27 26 25 23 23 22 22 20 18 17 16 15 14 14 14 15 15 15 16 16 15 15 15 15 16 17 17 17 17 17 18 18 18 17 18 18
32 31 30 30 29 28 28 28 27 27 26 26 25 25 23 21 19 18 17 16 16 16 16 16 16 17 18 18 18 17 17 17 17 17 17 18 18 18 18 19 20 19 19 20
32 31 30 30 30 29 30 29 29 28 27 26 26 25 24 23 22 21 20 19 18 18 18 18 18 18 18 19 19 20 19 19 19 19 19 19 20 20 20 20 20 20 20 20
32 31 31 29 31 31 30 29 29 28 28 28 27 25 25 24 23 23 22 22 21 20 20 20 20 20 20 21 22 21 22 21 21 21 21 21 22 22 22 22 21 22 22 21
31 31 31 30 30 30 30 29 28 28 29 28 27 26 25 25 24 24 24 23 23 22 22 22 22 22 22 22 23 24 23 23 23 23 23 23 24 24 24 23 23 23 23 23
31 31 31 31 29 29 30 29 28 29 30 29 28 27 27 26 26 26 25 25 25 24 23 24 24 25 25 25 25 25 25 25 24 24 24 25 25 25 25 25 25 25 24 24
31 31 31 31 30 30 31 30 29 30 30 29 29 29 29 29 29 28 27 27 26 26 26 26 26 27 27 26 26 26 26 26 25 25 26 25 25 26 26 27 26 26 26 25
30 31 31 30 30 30 32 31 31 31 30 30 30 30 30 31 30 30 29 28 28 27 27 27 27 27 27 27 27 27 27 26 26 27 28 27 27 28 28 29 28 27 26 26
32 31 30 30 31 31 31 31 31 30 30 31 31 31 32 32 31 30 30 29 29 29 29 29 29 28 28 28 28 28 27 26 27 28 28 28 29 30 30 30 29 28 27 26
32 31 31 31 31 31 30 30 30 30 31 32 32 32 32 31 31 31 31 31 31 31 31 30 30 30 30 30 30 28 28 29 29 29 29 30 30 30 31 31 31 30 29 27
31 31 31 32 31 31 31 31 31 31 32 32 32 31 31 31 32 32 32 32 32 32 32 32 32 31 31 31 31 30 30 30 30 29 29 30 30 31 31 32 31 31 31 30
30 30 31 31 31 31 31 30 31 31 32 32 32 31 31 32 32 32 33 33 32 32 32 32 32 32 32 32 32 32 32 31 31 31 31 30 31 32 32 32 32 32 31 30

GEFSCGP_500_meanwind_234.txt.gz
Wind_Speed
11 10 8 6 6 5 4 5 4 4 2 4 7 8 9 11 12 12 12 12 12 12 13 13 13 13 12 12 12 11 10 9 9 8 9 8 7 6 6 5 6 6 6 6
13 12 9 8 8 7 6 6 7 7 4 3 6 8 8 9 10 11 12 11 11 11 11 12 13 13 12 12 12 12 11 9 9 8 8 8 8 7 7 7 6 6 6 6
16 11 9 10 10 10 9 8 8 8 8 6 6 8 8 8 9 9 10 9 9 10 10 11 11 12 12 12 12 11 11 10 9 9 9 9 8 8 8 8 8 7 7 7
17 14 14 14 14 12 11 9 9 9 9 9 7 11 10 11 8 8 8 9 8 8 9 10 10 11 11 11 11 11 11 11 10 10 9 9 9 9 9 8 8 8 8 8
18 17 18 17 15 13 12 11 12 10 10 10 8 11 11 12 10 8 7 8 8 8 8 9 10 10 11 11 11 11 11 10 10 10 10 9 9 9 10 10 9 9 9 9
19 19 19 19 16 15 14 13 12 11 11 12 10 11 13 15 13 11 7 8 8 9 9 9 10 10 11 11 10 10 11 11 10 10 10 10 10 10 10 10 10 10 9 9
21 22 21 19 18 18 17 14 11 12 14 14 11 11 14 14 14 11 7 7 9 10 9 9 10 11 11 11 10 10 11 11 11 11 10 11 11 11 11 10 10 11 11 11
19 20 20 21 20 20 17 16 15 14 15 16 13 15 13 12 13 11 8 9 9 10 10 10 10 11 11 11 10 10 11 11 12 11 11 11 12 12 11 11 11 12 12 13
20 19 19 20 21 21 19 18 16 16 16 17 17 15 12 12 11 11 10 10 9 10 11 11 11 11 11 11 10 9 11 11 12 11 12 12 13 12 12 12 12 13 13 14
23 20 20 20 22 22 22 19 17 17 18 18 17 18 16 14 12 11 11 11 10 12 12 12 11 12 12 12 12 11 11 11 12 12 12 13 13 13 13 13 13 13 14 14
26 24 21 21 21 19 19 20 20 19 18 17 18 19 18 14 11 13 13 13 12 13 13 12 12 13 13 13 13 13 13 13 13 13 13 14 14 13 14 14 14 14 15 15
26 24 24 23 21 20 20 21 20 20 20 19 20 21 17 15 14 14 15 14 13 14 14 14 14 14 14 14 13 13 14 14 14 14 15 15 14 15 15 15 15 15 16 16
27 27 26 22 21 22 22 22 21 21 21 21 21 23 21 20 18 16 15 15 16 14 15 16 15 15 15 15 15 15 15 15 16 15 15 16 16 16 15 15 15 16 16 17
29 29 27 25 22 23 23 22 22 22 22 22 23 24 24 21 19 18 15 17 17 16 15 16 17 16 16 17 17 17 17 17 17 17 17 17 17 16 16 16 17 17 18 18
30 30 28 27 23 21 22 22 22 23 23 24 23 24 25 24 21 20 18 19 19 18 17 18 18 18 18 19 19 18 18 19 19 19 19 19 19 18 18 18 18 19 19 20
31 30 28 27 25 23 23 23 23 23 23 24 24 24 25 27 24 24 22 21 19 19 19 19 19 20 20 20 20 20 20 20 21 20 21 21 21 20 19 19 20 21 21 22
31 31 30 27 26 25 26 25 24 23 24 25 26 27 26 28 27 26 26 23 21 21 21 21 21 22 22 22 22 22 22 22 22 22 22 22 22 22 22 21 22 22 23 23
32 32 31 28 26 28 27 25 25 26 26 26 28 29 28 30 29 28 29 26 23 24 23 23 23 23 23 23 24 24 24 24 24 24 24 24 24 24 23 23 23 23 24 25
31 32 31 30 28 28 27 27 25 27 28 28 29 30 30 30 28 28 29 27 26 24 24 24 25 25 25 25 26 25 25 25 25 25 25 25 24 25 25 25 25 25 25 25
31 32 31 31 29 29 29 27 26 27 30 30 30 31 31 30 31 31 29 28 27 26 26 26 26 26 26 27 27 26 26 26 26 26 26 26 26 26 25 25 25 25 26 25
32 31 32 32 31 31 30 28 28 29 31 30 31 31 31 32 33 34 31 29 29 29 29 28 27 27 27 28 28 27 27 27 27 28 27 27 26 26 26 27 27 27 27 27
31 30 31 32 32 34 32 30 31 31 31 31 30 31 32 33 34 34 33 30 30 30 30 30 29 29 29 29 29 28 28 28 29 29 29 28 28 28 28 28 28 29 29 29
30 31 31 32 35 36 33 32 33 33 32 31 32 33 34 32 34 34 33 33 32 32 32 31 31 31 30 30 30 30 30 30 31 31 31 30 30 30 30 30 30 30 29 29
30 31 32 34 35 36 34 34 33 34 34 33 34 34 34 33 34 34 33 34 34 34 33 33 33 33 32 32 31 32 32 32 32 33 34 33 32 31 31 30 30 30 30 30
30 31 34 36 36 37 35 34 35 36 35 35 35 35 34 34 34 34 32 32 34 35 35 35 35 35 34 33 33 33 33 33 33 34 35 34 32 32 31 32 32 32 32 31
31 33 35 36 36 36 35 35 36 35 35 35 35 36 35 35 35 35 35 33 33 34 35 36 36 36 36 35 35 34 34 33 34 34 34 34 34 34 34 33 33 33 33 32

GEFSCGP_500_meanwind_240.txt.gz
Wind_Speed
15 14 12 11 8 6 4 2 2 4 6 7 7 6 7 9 10 11 11 10 11 11 11 11 12 12 12 12 12 12 11 10 10 9 9 8 8 7 6 6 6 5 4 4
18 15 13 12 10 7 5 3 1 5 7 8 8 7 6 7 8 8 9 10 9 9 9 9 11 11 11 11 11 11 10 10 9 8 8 8 8 8 7 6 6 5 4 4
18 15 15 14 13 10 8 5 2 5 8 10 9 8 7 7 7 8 8 8 8 8 8 9 9 9 9 9 9 10 9 9 8 7 7 7 7 7 7 7 6 6 5 5
20 19 18 17 15 13 10 7 6 6 9 12 9 10 9 8 7 8 8 7 6 6 7 7 7 8 8 8 8 8 9 8 7 7 6 6 5 6 6 6 6 6 6 6
21 21 20 19 16 13 11 10 10 10 11 12 10 10 11 10 8 7 7 6 4 4 5 6 6 7 7 7 7 7 8 7 6 7 6 5 5 5 5 5 5 5 6 6
22 22 21 20 18 15 14 13 13 13 14 13 11 11 11 11 8 8 6 6 3 4 5 6 5 6 6 7 7 6 7 8 9 9 7 6 6 6 5 5 5 5 6 6
24 23 22 21 19 17 16 15 15 16 16 15 13 14 12 11 10 8 7 6 4 4 5 5 5 6 6 6 7 6 7 8 8 9 9 7 6 6 6 6 6 6 6 6
24 24 23 21 20 18 17 17 16 16 17 16 16 14 13 11 10 9 6 5 5 5 4 4 5 5 6 6 6 6 7 8 8 8 9 8 8 7 7 7 6 7 7 7
24 23 22 21 20 21 19 19 17 17 17 16 16 15 14 12 12 10 8 8 6 6 4 4 4 5 5 6 6 7 7 7 8 8 9 9 9 9 9 8 8 8 8 9
24 24 24 22 23 23 21 19 19 19 18 18 17 17 15 12 11 10 10 8 7 6 4 3 4 5 6 6 7 7 7 8 8 9 9 9 10 10 10 9 9 9 10 10
24 25 24 24 25 23 23 22 21 20 20 19 18 16 15 13 12 11 11 9 8 7 7 5 6 6 6 6 7 7 8 8 9 9 10 10 11 10 10 10 10 11 11 11
26 27 26 26 25 24 23 23 22 22 21 21 21 19 16 15 13 13 12 12 10 8 7 6 7 7 7 7 8 8 8 8 9 10 10 11 11 12 11 11 12 12 13 13
28 29 29 28 26 27 26 25 24 23 22 22 22 20 18 15 15 15 15 14 11 9 10 9 9 9 9 9 9 9 9 9 10 10 11 12 13 13 13 13 13 14 14 14
29 30 30 30 27 27 27 26 24 25 25 23 22 22 20 19 17 17 17 16 13 12 12 11 12 12 12 12 11 10 10 11 11 12 12 13 14 14 14 14 15 16 16 15
32 32 31 31 29 28 28 27 25 25 26 25 23 23 22 21 20 19 18 17 16 15 14 13 14 14 14 13 13 13 12 13 13 13 14 15 15 16 16 15 16 17 17 16
32 33 32 31 31 30 30 29 28 27 26 26 25 24 23 22 21 20 19 19 18 17 17 16 15 15 15 15 15 15 15 16 16 16 16 16 16 17 17 18 19 18 18 18
32 32 33 32 32 32 31 29 29 28 27 27 26 24 24 24 23 22 21 20 20 19 19 18 18 18 18 18 17 17 17 18 18 18 19 18 18 18 19 19 20 20 19 19
33 33 33 33 33 34 31 30 30 29 28 27 27 27 27 26 25 24 22 22 22 21 20 21 21 20 20 20 19 19 19 19 20 20 21 20 19 19 20 20 21 21 21 20
33 34 34 34 34 34 33 31 31 30 29 29 28 26 26 26 27 26 25 24 24 24 24 24 23 22 22 22 21 21 21 21 22 22 22 22 21 21 21 21 22 22 22 22
34 34 34 33 34 35 33 32 31 32 31 30 29 28 28 28 29 28 27 27 26 27 26 26 26 25 24 24 23 23 24 24 24 24 24 24 24 24 24 23 24 24 23 24
34 34 34 34 34 34 32 32 32 33 31 29 29 28 27 29 29 29 30 29 28 28 28 28 27 27 26 26 26 25 25 26 26 26 26 26 26 26 26 26 26 25 25 25
36 35 34 34 34 34 31 31 31 32 31 30 29 28 29 29 29 30 31 30 29 29 29 29 29 28 28 27 27 28 28 28 28 28 28 28 28 28 28 28 28 27 27 27
35 35 34 35 33 32 31 32 33 33 33 32 30 29 30 31 32 32 32 32 32 30 30 30 30 30 30 30 30 30 30 30 30 30 30 30 30 29 28 28 28 29 29 28
33 33 34 33 33 32 32 32 34 34 34 33 31 31 31 31 32 32 32 32 31 30 31 31 32 33 33 33 32 32 32 32 31 31 31 31 31 31 30 29 30 29 30 30
33 33 34 33 33 33 32 32 33 34 34 33 33 32 32 32 32 32 33 33 33 33 32 32 33 33 33 33 32 32 32 32 32 32 33 33 32 32 31 30 30 30 30 31
32 33 32 32 32 32 32 32 32 33 34 33 32 31 32 32 31 31 32 32 33 32 32 32 32 32 32 32 32 32 32 32 32 33 33 33 33 32 31 30 30 30 31 31